Time,TemperatureF,DewpointF,PressureIn,WindDirection,WindDirectionDegrees,WindSpeedMPH,WindSpeedGustMPH,Humidity,HourlyPrecipIn,Conditions,Clouds,dailyrainin,SolarRadiationWatts/m^2,SoftwareType,DateUTC
2013-10-10 00:00:00,80.7,75.4,29.97,NE,38,2.0,5.0,84,0.00,,FEW,0.00,0.00,VWS V14.01,2013-10-10 04:00:00,
2013-10-10 00:01:00,80.7,75.4,29.97,NE,38,2.0,5.0,84,0.00,,FEW,0.00,0.00,VWS V14.01,2013-10-10 04:01:00,
2013-10-10 00:06:00,80.7,75.4,29.96,NNE,23,1.0,4.0,84,0.00,,FEW,0.00,0.00,VWS V14.01,2013-10-10 04:06:00,
2013-10-10 00:11:00,80.7,75.4,29.96,NNE,18,0.0,4.0,84,0.00,,FEW,0.00,0.00,VWS V14.01,2013-10-10 04:11:00,
2013-10-10 00:12:00,80.7,75.4,29.96,NNE,18,1.0,4.0,84,0.00,,FEW,0.00,0.00,VWS V14.01,2013-10-10 04:12:00,
2013-10-10 00:16:00,80.7,75.4,29.96,North,355,1.0,4.0,84,0.00,,FEW,0.00,0.00,VWS V14.01,2013-10-10 04:16:00,
2013-10-10 00:17:00,80.7,75.4,29.96,North,11,3.0,4.0,84,0.00,,FEW,0.00,0.00,VWS V14.01,2013-10-10 04:17:00,
2013-10-10 00:21:00,80.7,75.4,29.96,North,355,3.0,4.0,84,0.00,,FEW,0.00,0.00,VWS V14.01,2013-10-10 04:21:00,
2013-10-10 00:22:00,80.7,75.4,29.96,North,355,2.0,4.0,84,0.00,,FEW,0.00,0.00,VWS V14.01,2013-10-10 04:22:00,
2013-10-10 00:23:00,80.7,75.4,29.96,North,355,1.0,4.0,84,0.00,,FEW,0.00,0.00,VWS V14.01,2013-10-10 04:23:00,
2013-10-10 00:26:00,80.7,75.4,29.96,North,355,1.0,3.0,84,0.00,,FEW,0.00,0.00,VWS V14.01,2013-10-10 04:26:00,
2013-10-10 00:27:00,80.7,75.4,29.96,North,355,1.0,3.0,84,0.00,,FEW,0.00,0.00,VWS V14.01,2013-10-10 04:27:00,
2013-10-10 00:28:00,80.7,75.4,29.96,North,355,1.0,3.0,84,0.00,,FEW,0.00,0.00,VWS V14.01,2013-10-10 04:28:00,
2013-10-10 00:31:00,80.7,75.4,29.96,NNE,15,0.0,4.0,84,0.00,,FEW,0.00,0.00,VWS V14.01,2013-10-10 04:31:00,
2013-10-10 00:32:00,80.7,75.4,29.96,NNE,15,4.0,4.0,84,0.00,,FEW,0.00,0.00,VWS V14.01,2013-10-10 04:32:00,
2013-10-10 00:33:00,80.7,75.4,29.96,NNE,15,2.0,4.0,84,0.00,,FEW,0.00,0.00,VWS V14.01,2013-10-10 04:33:00,
2013-10-10 00:36:00,80.7,75.4,29.96,NNW,345,4.0,5.0,84,0.00,,FEW,0.00,0.00,VWS V14.01,2013-10-10 04:36:00,
2013-10-10 00:37:00,80.7,75.4,29.96,NNW,347,2.0,5.0,84,0.00,,FEW,0.00,0.00,VWS V14.01,2013-10-10 04:37:00,
2013-10-10 00:38:00,80.7,75.4,29.96,NNW,342,4.0,5.0,84,0.00,,FEW,0.00,0.00,VWS V14.01,2013-10-10 04:38:00,
2013-10-10 00:41:00,80.7,75.4,29.96,North,350,3.0,5.0,84,0.00,,FEW,0.00,0.00,VWS V14.01,2013-10-10 04:41:00,
2013-10-10 00:42:00,80.7,75.4,29.96,NNE,17,1.0,5.0,84,0.00,,FEW,0.00,0.00,VWS V14.01,2013-10-10 04:42:00,
2013-10-10 00:43:00,80.7,75.4,29.96,NNE,14,1.0,5.0,84,0.00,,FEW,0.00,0.00,VWS V14.01,2013-10-10 04:43:00,
2013-10-10 00:46:00,80.7,75.4,29.96,NNE,28,2.0,4.0,84,0.00,,FEW,0.00,0.00,VWS V14.01,2013-10-10 04:46:00,
2013-10-10 00:47:00,80.7,75.4,29.96,NNE,28,1.0,4.0,84,0.00,,FEW,0.00,0.00,VWS V14.01,2013-10-10 04:47:00,
2013-10-10 00:48:00,80.7,75.4,29.96,NNE,18,2.0,4.0,84,0.00,,FEW,0.00,0.00,VWS V14.01,2013-10-10 04:48:00,
2013-10-10 00:49:00,80.7,75.4,29.96,North,5,1.0,4.0,84,0.00,,FEW,0.00,0.00,VWS V14.01,2013-10-10 04:49:00,
2013-10-10 00:51:00,80.7,75.4,29.96,North,355,2.0,4.0,84,0.00,,FEW,0.00,0.00,VWS V14.01,2013-10-10 04:51:00,
2013-10-10 00:52:00,80.8,75.5,29.96,North,355,3.0,4.0,84,0.00,,FEW,0.00,0.00,VWS V14.01,2013-10-10 04:52:00,
2013-10-10 00:53:00,80.7,75.4,29.96,North,355,2.0,4.0,84,0.00,,FEW,0.00,0.00,VWS V14.01,2013-10-10 04:53:00,
2013-10-10 00:55:00,80.7,75.4,29.96,North,355,1.0,1.0,84,0.00,,FEW,0.00,0.00,VWS V14.01,2013-10-10 04:55:00,
2013-10-10 00:57:00,80.7,75.4,29.96,North,355,0.0,2.0,84,0.00,,FEW,0.00,0.00,VWS V14.01,2013-10-10 04:57:00,
2013-10-10 00:58:00,80.7,75.4,29.96,North,355,2.0,2.0,84,0.00,,FEW,0.00,0.00,VWS V14.01,2013-10-10 04:58:00,
2013-10-10 01:00:00,80.7,75.4,29.96,NNE,14,1.0,5.0,84,0.00,,FEW,0.00,0.00,VWS V14.01,2013-10-10 05:00:00,
2013-10-10 01:02:00,80.7,75.4,29.96,NNE,14,0.0,5.0,84,0.00,,FEW,0.00,0.00,VWS V14.01,2013-10-10 05:02:00,
2013-10-10 01:03:00,80.6,75.3,29.96,NNE,22,3.0,5.0,84,0.00,,FEW,0.00,0.00,VWS V14.01,2013-10-10 05:03:00,
2013-10-10 01:04:00,80.6,75.3,29.96,NNE,19,4.0,5.0,84,0.00,,FEW,0.00,0.00,VWS V14.01,2013-10-10 05:04:00,
2013-10-10 01:05:00,80.6,75.3,29.96,NNE,19,1.0,3.0,84,0.00,,FEW,0.00,0.00,VWS V14.01,2013-10-10 05:05:00,
2013-10-10 01:07:00,80.6,75.3,29.96,NNE,24,3.0,3.0,84,0.00,,FEW,0.00,0.00,VWS V14.01,2013-10-10 05:07:00,
2013-10-10 01:08:00,80.6,75.3,29.96,North,11,5.0,5.0,84,0.00,,FEW,0.00,0.00,VWS V14.01,2013-10-10 05:08:00,
2013-10-10 01:09:00,80.6,75.3,29.96,North,11,3.0,5.0,84,0.00,,FEW,0.00,0.00,VWS V14.01,2013-10-10 05:09:00,
2013-10-10 01:11:00,80.6,75.3,29.96,NE,39,2.0,5.0,84,0.00,,FEW,0.00,0.00,VWS V14.01,2013-10-10 05:11:00,
2013-10-10 01:12:00,80.7,75.4,29.96,NNE,30,3.0,5.0,84,0.00,,FEW,0.00,0.00,VWS V14.01,2013-10-10 05:12:00,
2013-10-10 01:13:00,80.6,75.3,29.96,NNE,30,0.0,5.0,84,0.00,,FEW,0.00,0.00,VWS V14.01,2013-10-10 05:13:00,
2013-10-10 01:14:00,80.6,75.3,29.96,NNE,30,0.0,5.0,84,0.00,,FEW,0.00,0.00,VWS V14.01,2013-10-10 05:14:00,
2013-10-10 01:16:00,80.6,75.3,29.96,NNE,30,1.0,3.0,84,0.00,,FEW,0.00,0.00,VWS V14.01,2013-10-10 05:16:00,
2013-10-10 01:17:00,80.6,75.3,29.96,NNE,30,0.0,3.0,84,0.00,,FEW,0.00,0.00,VWS V14.01,2013-10-10 05:17:00,
2013-10-10 01:18:00,80.6,75.3,29.96,NNE,30,0.0,3.0,84,0.00,,FEW,0.00,0.00,VWS V14.01,2013-10-10 05:18:00,
2013-10-10 01:19:00,80.6,75.3,29.96,NNE,30,0.0,3.0,84,0.00,,FEW,0.00,0.00,VWS V14.01,2013-10-10 05:19:00,
2013-10-10 01:21:00,80.6,75.3,29.96,NNE,30,0.0,3.0,84,0.00,,FEW,0.00,0.00,VWS V14.01,2013-10-10 05:21:00,
2013-10-10 01:22:00,80.6,75.3,29.96,NNE,30,0.0,3.0,84,0.00,,FEW,0.00,0.00,VWS V14.01,2013-10-10 05:22:00,
2013-10-10 01:23:00,80.5,75.2,29.96,NNE,30,0.0,3.0,84,0.00,,FEW,0.00,0.00,VWS V14.01,2013-10-10 05:23:00,
2013-10-10 01:24:00,80.6,75.3,29.96,NNE,30,0.0,0.0,84,0.00,,FEW,0.00,0.00,VWS V14.01,2013-10-10 05:24:00,
2013-10-10 01:25:00,80.5,75.2,29.96,NNE,30,1.0,1.0,84,0.00,,FEW,0.00,0.00,VWS V14.01,2013-10-10 05:25:00,
2013-10-10 01:26:00,80.5,75.2,29.96,NNE,30,1.0,2.0,84,0.00,,FEW,0.00,0.00,VWS V14.01,2013-10-10 05:26:00,
2013-10-10 01:27:00,80.5,75.2,29.96,NNE,30,1.0,2.0,84,0.00,,FEW,0.00,0.00,VWS V14.01,2013-10-10 05:27:00,
2013-10-10 01:28:00,80.5,75.2,29.96,NNE,30,0.0,2.0,84,0.00,,FEW,0.00,0.00,VWS V14.01,2013-10-10 05:28:00,
2013-10-10 01:29:00,80.5,75.2,29.96,NNE,30,0.0,2.0,84,0.00,,FEW,0.00,0.00,VWS V14.01,2013-10-10 05:29:00,
2013-10-10 01:30:00,80.5,75.2,29.96,NNE,30,0.0,2.0,84,0.00,,FEW,0.00,0.00,VWS V14.01,2013-10-10 05:30:00,
2013-10-10 01:32:00,80.5,75.2,29.96,NNE,30,1.0,2.0,84,0.00,,FEW,0.00,0.00,VWS V14.01,2013-10-10 05:32:00,
2013-10-10 01:33:00,80.5,75.2,29.96,NNE,30,2.0,2.0,84,0.00,,FEW,0.00,0.00,VWS V14.01,2013-10-10 05:33:00,
2013-10-10 01:34:00,80.4,75.1,29.95,NNE,30,1.0,1.0,84,0.00,,FEW,0.00,0.00,VWS V14.01,2013-10-10 05:34:00,
2013-10-10 01:35:00,80.4,75.1,29.95,NNE,30,0.0,1.0,84,0.00,,FEW,0.00,0.00,VWS V14.01,2013-10-10 05:35:00,
2013-10-10 01:37:00,80.4,75.1,29.95,NNE,30,1.0,2.0,84,0.00,,FEW,0.00,0.00,VWS V14.01,2013-10-10 05:37:00,
2013-10-10 01:38:00,80.4,75.1,29.95,NNE,30,2.0,2.0,84,0.00,,FEW,0.00,0.00,VWS V14.01,2013-10-10 05:38:00,
2013-10-10 01:40:00,80.4,75.1,29.95,NNE,30,0.0,3.0,84,0.00,,FEW,0.00,0.00,VWS V14.01,2013-10-10 05:40:00,
2013-10-10 01:41:00,80.4,75.1,29.95,NNE,30,1.0,3.0,84,0.00,,FEW,0.00,0.00,VWS V14.01,2013-10-10 05:41:00,
2013-10-10 01:42:00,80.3,75.0,29.95,NNE,30,0.0,3.0,84,0.00,,FEW,0.00,0.00,VWS V14.01,2013-10-10 05:42:00,
2013-10-10 01:43:00,80.3,75.0,29.95,NNE,30,0.0,3.0,84,0.00,,FEW,0.00,0.00,VWS V14.01,2013-10-10 05:43:00,
2013-10-10 01:45:00,80.3,75.0,29.95,NNE,30,1.0,2.0,84,0.00,,FEW,0.00,0.00,VWS V14.01,2013-10-10 05:45:00,
2013-10-10 01:46:00,80.3,75.0,29.95,NNE,30,1.0,2.0,84,0.00,,FEW,0.00,0.00,VWS V14.01,2013-10-10 05:46:00,
2013-10-10 01:48:00,80.3,75.4,29.95,NNE,30,1.0,2.0,85,0.00,,FEW,0.00,0.00,VWS V14.01,2013-10-10 05:48:00,
2013-10-10 01:50:00,80.3,75.4,29.95,NNE,30,0.0,2.0,85,0.00,,FEW,0.00,0.00,VWS V14.01,2013-10-10 05:50:00,
2013-10-10 01:51:00,80.3,75.4,29.95,NNE,30,2.0,2.0,85,0.00,,FEW,0.00,0.00,VWS V14.01,2013-10-10 05:51:00,
2013-10-10 01:53:00,80.3,75.4,29.95,NNE,30,0.0,2.0,85,0.00,,FEW,0.00,0.00,VWS V14.01,2013-10-10 05:53:00,
2013-10-10 01:54:00,80.3,75.4,29.95,NNE,30,2.0,3.0,85,0.00,,FEW,0.00,0.00,VWS V14.01,2013-10-10 05:54:00,
2013-10-10 01:55:00,80.3,75.4,29.95,NNE,30,0.0,2.0,85,0.00,,FEW,0.00,0.00,VWS V14.01,2013-10-10 05:55:00,
2013-10-10 01:56:00,80.3,75.4,29.95,NNE,30,2.0,2.0,85,0.00,,FEW,0.00,0.00,VWS V14.01,2013-10-10 05:56:00,
2013-10-10 01:58:00,80.3,75.4,29.95,NNE,30,0.0,2.0,85,0.00,,FEW,0.00,0.00,VWS V14.01,2013-10-10 05:58:00,
2013-10-10 01:59:00,80.3,75.4,29.95,NNE,30,0.0,2.0,85,0.00,,FEW,0.00,0.00,VWS V14.01,2013-10-10 05:59:00,
2013-10-10 02:01:00,80.3,75.4,29.95,NNE,30,1.0,3.0,85,0.00,,FEW,0.00,0.00,VWS V14.01,2013-10-10 06:01:00,
2013-10-10 02:02:00,80.3,75.4,29.95,NNE,30,1.0,3.0,85,0.00,,FEW,0.00,0.00,VWS V14.01,2013-10-10 06:02:00,
2013-10-10 02:03:00,80.3,75.4,29.95,NNE,30,0.0,3.0,85,0.00,,FEW,0.00,0.00,VWS V14.01,2013-10-10 06:03:00,
2013-10-10 02:04:00,80.3,75.4,29.95,NNE,30,2.0,2.0,85,0.00,,FEW,0.00,0.00,VWS V14.01,2013-10-10 06:04:00,
2013-10-10 02:06:00,80.2,75.3,29.95,NE,51,1.0,4.0,85,0.00,,FEW,0.00,0.00,VWS V14.01,2013-10-10 06:06:00,
2013-10-10 02:07:00,80.2,75.3,29.95,NE,44,1.0,4.0,85,0.00,,FEW,0.00,0.00,VWS V14.01,2013-10-10 06:07:00,
2013-10-10 02:08:00,80.2,75.3,29.95,NE,44,0.0,4.0,85,0.00,,FEW,0.00,0.00,VWS V14.01,2013-10-10 06:08:00,
2013-10-10 02:09:00,80.2,75.3,29.95,NE,49,2.0,5.0,85,0.00,,FEW,0.00,0.00,VWS V14.01,2013-10-10 06:09:00,
2013-10-10 02:11:00,80.2,75.3,29.95,NE,44,1.0,5.0,85,0.00,,FEW,0.00,0.00,VWS V14.01,2013-10-10 06:11:00,
2013-10-10 02:12:00,80.2,75.3,29.95,NE,42,2.0,5.0,85,0.00,,FEW,0.00,0.00,VWS V14.01,2013-10-10 06:12:00,
2013-10-10 02:13:00,80.2,75.3,29.95,NE,40,4.0,5.0,85,0.00,,FEW,0.00,0.00,VWS V14.01,2013-10-10 06:13:00,
2013-10-10 02:14:00,80.2,75.3,29.95,NNE,21,3.0,4.0,85,0.00,,FEW,0.00,0.00,VWS V14.01,2013-10-10 06:14:00,
2013-10-10 02:17:00,80.3,75.4,29.95,NE,49,4.0,4.0,85,0.00,,FEW,0.00,0.00,VWS V14.01,2013-10-10 06:17:00,
2013-10-10 02:18:00,80.3,75.4,29.94,ENE,74,4.0,4.0,85,0.00,,FEW,0.00,0.00,VWS V14.01,2013-10-10 06:18:00,
2013-10-10 02:19:00,80.3,75.4,29.94,NE,51,6.0,6.0,85,0.00,,FEW,0.00,0.00,VWS V14.01,2013-10-10 06:19:00,
2013-10-10 02:22:00,80.5,75.6,29.94,ENE,59,0.0,6.0,85,0.00,,FEW,0.00,0.00,VWS V14.01,2013-10-10 06:22:00,
2013-10-10 02:23:00,80.5,75.6,29.94,East,80,0.0,6.0,85,0.00,,FEW,0.00,0.00,VWS V14.01,2013-10-10 06:23:00,
2013-10-10 02:24:00,80.5,75.6,29.94,SE,126,0.0,1.0,85,0.00,,FEW,0.00,0.00,VWS V14.01,2013-10-10 06:24:00,
2013-10-10 02:25:00,80.5,75.6,29.94,East,80,0.0,3.0,85,0.00,,FEW,0.00,0.00,VWS V14.01,2013-10-10 06:25:00,
2013-10-10 02:27:00,80.5,75.6,29.94,East,82,0.0,3.0,85,0.00,,FEW,0.00,0.00,VWS V14.01,2013-10-10 06:27:00,
2013-10-10 02:28:00,80.5,75.6,29.94,East,82,0.0,3.0,85,0.00,,FEW,0.00,0.00,VWS V14.01,2013-10-10 06:28:00,
2013-10-10 02:29:00,80.5,75.6,29.94,East,82,2.0,3.0,85,0.00,,FEW,0.00,0.00,VWS V14.01,2013-10-10 06:29:00,
2013-10-10 02:30:00,80.5,75.6,29.94,ENE,65,0.0,3.0,85,0.00,,FEW,0.00,0.00,VWS V14.01,2013-10-10 06:30:00,
2013-10-10 02:32:00,80.5,75.9,29.94,ENE,65,0.0,3.0,86,0.00,,FEW,0.00,0.00,VWS V14.01,2013-10-10 06:32:00,
2013-10-10 02:33:00,80.5,75.9,29.94,ENE,65,0.0,3.0,86,0.00,,FEW,0.00,0.00,VWS V14.01,2013-10-10 06:33:00,
2013-10-10 02:34:00,80.5,75.9,29.94,ENE,65,0.0,3.0,86,0.00,,FEW,0.00,0.00,VWS V14.01,2013-10-10 06:34:00,
2013-10-10 02:35:00,80.5,75.9,29.94,ENE,65,0.0,0.0,86,0.00,,FEW,0.00,0.00,VWS V14.01,2013-10-10 06:35:00,
2013-10-10 02:38:00,80.5,75.9,29.94,ENE,65,0.0,1.0,86,0.00,,FEW,0.00,0.00,VWS V14.01,2013-10-10 06:38:00,
2013-10-10 02:39:00,80.5,75.9,29.94,ENE,65,0.0,1.0,86,0.00,,FEW,0.00,0.00,VWS V14.01,2013-10-10 06:39:00,
2013-10-10 02:40:00,80.4,75.8,29.94,ENE,65,0.0,1.0,86,0.00,,FEW,0.00,0.00,VWS V14.01,2013-10-10 06:40:00,
2013-10-10 02:41:00,80.4,75.8,29.94,ENE,65,2.0,2.0,86,0.00,,FEW,0.00,0.00,VWS V14.01,2013-10-10 06:41:00,
2013-10-10 02:43:00,80.3,75.7,29.94,ENE,65,0.0,2.0,86,0.00,,FEW,0.00,0.00,VWS V14.01,2013-10-10 06:43:00,
2013-10-10 02:44:00,80.3,75.7,29.94,ENE,65,0.0,0.0,86,0.00,,FEW,0.00,0.00,VWS V14.01,2013-10-10 06:44:00,
2013-10-10 02:45:00,80.3,75.7,29.94,ENE,65,0.0,1.0,86,0.00,,FEW,0.00,0.00,VWS V14.01,2013-10-10 06:45:00,
2013-10-10 02:48:00,80.2,75.6,29.94,ENE,65,0.0,2.0,86,0.00,,FEW,0.00,0.00,VWS V14.01,2013-10-10 06:48:00,
2013-10-10 02:49:00,80.2,75.6,29.94,ENE,65,0.0,2.0,86,0.00,,FEW,0.00,0.00,VWS V14.01,2013-10-10 06:49:00,
2013-10-10 02:50:00,80.1,75.5,29.94,ENE,65,0.0,2.0,86,0.00,,FEW,0.00,0.00,VWS V14.01,2013-10-10 06:50:00,
2013-10-10 02:51:00,80.1,75.5,29.94,ENE,65,0.0,2.0,86,0.00,,FEW,0.00,0.00,VWS V14.01,2013-10-10 06:51:00,
2013-10-10 02:53:00,80.1,75.5,29.94,ENE,65,0.0,2.0,86,0.00,,FEW,0.00,0.00,VWS V14.01,2013-10-10 06:53:00,
2013-10-10 02:54:00,80.0,75.4,29.94,ENE,65,0.0,0.0,86,0.00,,FEW,0.00,0.00,VWS V14.01,2013-10-10 06:54:00,
2013-10-10 02:55:00,80.0,75.4,29.94,ENE,65,0.0,1.0,86,0.00,,FEW,0.00,0.00,VWS V14.01,2013-10-10 06:55:00,
2013-10-10 02:57:00,80.0,75.4,29.94,ENE,65,0.0,1.0,86,0.00,,FEW,0.00,0.00,VWS V14.01,2013-10-10 06:57:00,
2013-10-10 02:58:00,80.0,75.4,29.94,ENE,65,0.0,1.0,86,0.00,,FEW,0.00,0.00,VWS V14.01,2013-10-10 06:58:00,
2013-10-10 02:59:00,79.9,75.3,29.94,ENE,65,0.0,1.0,86,0.00,,FEW,0.00,0.00,VWS V14.01,2013-10-10 06:59:00,
2013-10-10 03:00:00,79.9,75.3,29.94,ENE,65,0.0,1.0,86,0.00,,FEW,0.00,0.00,VWS V14.01,2013-10-10 07:00:00,
2013-10-10 03:02:00,79.9,75.3,29.94,ENE,65,1.0,1.0,86,0.00,,FEW,0.00,0.00,VWS V14.01,2013-10-10 07:02:00,
2013-10-10 03:03:00,79.9,75.3,29.94,ENE,65,0.0,1.0,86,0.00,,FEW,0.00,0.00,VWS V14.01,2013-10-10 07:03:00,
2013-10-10 03:04:00,79.8,75.2,29.94,ENE,65,0.0,0.0,86,0.00,,FEW,0.00,0.00,VWS V14.01,2013-10-10 07:04:00,
2013-10-10 03:05:00,79.8,75.2,29.94,ENE,65,0.0,0.0,86,0.00,,FEW,0.00,0.00,VWS V14.01,2013-10-10 07:05:00,
2013-10-10 03:07:00,79.8,75.2,29.94,ENE,65,0.0,1.0,86,0.00,,FEW,0.00,0.00,VWS V14.01,2013-10-10 07:07:00,
2013-10-10 03:08:00,79.7,75.2,29.94,ENE,65,0.0,1.0,86,0.00,,FEW,0.00,0.00,VWS V14.01,2013-10-10 07:08:00,
2013-10-10 03:09:00,79.7,75.2,29.94,ENE,65,0.0,1.0,86,0.00,,FEW,0.00,0.00,VWS V14.01,2013-10-10 07:09:00,
2013-10-10 03:10:00,79.7,75.2,29.94,ENE,65,0.0,1.0,86,0.00,,FEW,0.00,0.00,VWS V14.01,2013-10-10 07:10:00,
2013-10-10 03:12:00,79.7,75.2,29.94,ENE,65,0.0,1.0,86,0.00,,FEW,0.00,0.00,VWS V14.01,2013-10-10 07:12:00,
2013-10-10 03:13:00,79.6,75.1,29.94,ENE,65,1.0,1.0,86,0.00,,FEW,0.00,0.00,VWS V14.01,2013-10-10 07:13:00,
2013-10-10 03:14:00,79.6,75.1,29.94,ENE,65,0.0,0.0,86,0.00,,FEW,0.00,0.00,VWS V14.01,2013-10-10 07:14:00,
2013-10-10 03:15:00,79.6,75.1,29.94,ENE,65,0.0,0.0,86,0.00,,FEW,0.00,0.00,VWS V14.01,2013-10-10 07:15:00,
2013-10-10 03:16:00,79.6,75.1,29.94,ENE,65,0.0,0.0,86,0.00,,FEW,0.00,0.00,VWS V14.01,2013-10-10 07:16:00,
2013-10-10 03:17:00,79.6,75.1,29.94,ENE,65,0.0,0.0,86,0.00,,FEW,0.00,0.00,VWS V14.01,2013-10-10 07:17:00,
2013-10-10 03:18:00,79.6,75.1,29.94,ENE,65,0.0,0.0,86,0.00,,FEW,0.00,0.00,VWS V14.01,2013-10-10 07:18:00,
2013-10-10 03:19:00,79.6,75.1,29.94,ENE,65,0.0,0.0,86,0.00,,FEW,0.00,0.00,VWS V14.01,2013-10-10 07:19:00,
2013-10-10 03:20:00,79.6,75.1,29.94,ENE,65,1.0,1.0,86,0.00,,FEW,0.00,0.00,VWS V14.01,2013-10-10 07:20:00,
2013-10-10 03:21:00,79.5,74.9,29.94,ENE,65,1.0,2.0,86,0.00,,FEW,0.00,0.00,VWS V14.01,2013-10-10 07:21:00,
2013-10-10 03:22:00,79.5,74.9,29.94,ENE,65,0.0,2.0,86,0.00,,FEW,0.00,0.00,VWS V14.01,2013-10-10 07:22:00,
2013-10-10 03:23:00,79.5,74.9,29.94,ENE,65,0.0,2.0,86,0.00,,FEW,0.00,0.00,VWS V14.01,2013-10-10 07:23:00,
2013-10-10 03:24:00,79.5,75.3,29.94,ENE,65,0.0,0.0,87,0.00,,FEW,0.00,0.00,VWS V14.01,2013-10-10 07:24:00,
2013-10-10 03:25:00,79.5,75.3,29.94,ENE,65,0.0,0.0,87,0.00,,FEW,0.00,0.00,VWS V14.01,2013-10-10 07:25:00,
2013-10-10 03:26:00,79.5,75.3,29.94,ENE,65,1.0,1.0,87,0.00,,FEW,0.00,0.00,VWS V14.01,2013-10-10 07:26:00,
2013-10-10 03:27:00,79.5,75.3,29.94,ENE,65,0.0,1.0,87,0.00,,FEW,0.00,0.00,VWS V14.01,2013-10-10 07:27:00,
2013-10-10 03:28:00,79.5,75.3,29.94,ENE,65,0.0,1.0,87,0.00,,FEW,0.00,0.00,VWS V14.01,2013-10-10 07:28:00,
2013-10-10 03:29:00,79.5,75.3,29.94,ENE,65,0.0,1.0,87,0.00,,FEW,0.00,0.00,VWS V14.01,2013-10-10 07:29:00,
2013-10-10 03:30:00,79.4,75.2,29.94,ENE,65,0.0,1.0,87,0.00,,FEW,0.00,0.00,VWS V14.01,2013-10-10 07:30:00,
2013-10-10 03:31:00,79.5,75.3,29.94,ENE,65,0.0,1.0,87,0.00,,FEW,0.00,0.00,VWS V14.01,2013-10-10 07:31:00,
2013-10-10 03:33:00,79.4,75.2,29.94,ENE,65,0.0,1.0,87,0.00,,FEW,0.00,0.00,VWS V14.01,2013-10-10 07:33:00,
2013-10-10 03:35:00,79.4,75.2,29.94,ENE,65,0.0,0.0,87,0.00,,FEW,0.00,0.00,VWS V14.01,2013-10-10 07:35:00,
2013-10-10 03:37:00,79.4,75.2,29.94,ENE,65,0.0,1.0,87,0.00,,FEW,0.00,0.00,VWS V14.01,2013-10-10 07:37:00,
2013-10-10 03:38:00,79.4,75.2,29.94,ENE,65,0.0,1.0,87,0.00,,FEW,0.00,0.00,VWS V14.01,2013-10-10 07:38:00,
2013-10-10 03:39:00,79.4,75.2,29.94,ENE,65,0.0,1.0,87,0.00,,FEW,0.00,0.00,VWS V14.01,2013-10-10 07:39:00,
2013-10-10 03:40:00,79.4,75.2,29.94,ENE,65,0.0,1.0,87,0.00,,FEW,0.00,0.00,VWS V14.01,2013-10-10 07:40:00,
2013-10-10 03:42:00,79.4,75.2,29.94,East,86,1.0,3.0,87,0.00,,FEW,0.00,0.00,VWS V14.01,2013-10-10 07:42:00,
2013-10-10 03:43:00,79.4,75.2,29.94,East,86,1.0,3.0,87,0.00,,FEW,0.00,0.00,VWS V14.01,2013-10-10 07:43:00,
2013-10-10 03:44:00,79.4,75.2,29.94,NE,35,2.0,2.0,87,0.00,,FEW,0.00,0.00,VWS V14.01,2013-10-10 07:44:00,
2013-10-10 03:45:00,79.4,75.2,29.94,ENE,59,2.0,2.0,87,0.00,,FEW,0.00,0.00,VWS V14.01,2013-10-10 07:45:00,
2013-10-10 03:47:00,79.4,75.2,29.94,ENE,69,0.0,3.0,87,0.00,,FEW,0.00,0.00,VWS V14.01,2013-10-10 07:47:00,
2013-10-10 03:48:00,79.4,75.2,29.94,ENE,74,4.0,6.0,87,0.00,,FEW,0.00,0.00,VWS V14.01,2013-10-10 07:48:00,
2013-10-10 03:50:00,79.5,75.3,29.94,NNE,30,3.0,6.0,87,0.00,,FEW,0.00,0.00,VWS V14.01,2013-10-10 07:50:00,
2013-10-10 03:52:00,79.6,75.7,29.94,NNE,30,5.0,7.0,88,0.00,,FEW,0.00,0.00,VWS V14.01,2013-10-10 07:52:00,
2013-10-10 03:53:00,79.7,75.8,29.94,North,5,6.0,7.0,88,0.00,,FEW,0.00,0.00,VWS V14.01,2013-10-10 07:53:00,
2013-10-10 03:54:00,79.8,75.9,29.94,NNE,24,9.0,9.0,88,0.00,,FEW,0.00,0.00,VWS V14.01,2013-10-10 07:54:00,
2013-10-10 03:55:00,79.8,75.9,29.94,North,9,8.0,10.0,88,0.00,,FEW,0.00,0.00,VWS V14.01,2013-10-10 07:55:00,
2013-10-10 03:56:00,80.0,76.1,29.94,NE,49,3.0,10.0,88,0.00,,FEW,0.00,0.00,VWS V14.01,2013-10-10 07:56:00,
2013-10-10 03:58:00,80.1,76.2,29.94,NE,49,4.0,10.0,88,0.00,,FEW,0.00,0.00,VWS V14.01,2013-10-10 07:58:00,
2013-10-10 03:59:00,80.1,76.2,29.94,NNE,26,5.0,10.0,88,0.00,,FEW,0.00,0.00,VWS V14.01,2013-10-10 07:59:00,
2013-10-10 04:00:00,80.1,76.2,29.94,NE,40,7.0,10.0,88,0.00,,FEW,0.00,0.00,VWS V14.01,2013-10-10 08:00:00,
2013-10-10 04:01:00,80.1,76.2,29.94,NE,34,5.0,10.0,88,0.00,,FEW,0.00,0.00,VWS V14.01,2013-10-10 08:01:00,
2013-10-10 04:03:00,80.1,75.9,29.93,NNE,16,8.0,10.0,87,0.00,,FEW,0.00,0.00,VWS V14.01,2013-10-10 08:03:00,
2013-10-10 04:04:00,80.1,75.9,29.93,ENE,59,5.0,10.0,87,0.00,,FEW,0.00,0.00,VWS V14.01,2013-10-10 08:04:00,
2013-10-10 04:05:00,80.1,75.9,29.93,NE,49,3.0,9.0,87,0.00,,FEW,0.00,0.00,VWS V14.01,2013-10-10 08:05:00,
2013-10-10 04:06:00,80.1,75.9,29.93,NE,51,7.0,9.0,87,0.00,,FEW,0.00,0.00,VWS V14.01,2013-10-10 08:06:00,
2013-10-10 04:09:00,80.1,75.9,29.93,NE,47,6.0,11.0,87,0.00,,FEW,0.00,0.00,VWS V14.01,2013-10-10 08:09:00,
2013-10-10 04:10:00,80.0,75.4,29.93,NE,41,12.0,12.0,86,0.00,,FEW,0.00,0.00,VWS V14.01,2013-10-10 08:10:00,
2013-10-10 04:11:00,80.0,75.4,29.93,NE,53,6.0,12.0,86,0.00,,FEW,0.00,0.00,VWS V14.01,2013-10-10 08:11:00,
2013-10-10 04:14:00,80.0,75.4,29.93,NNE,31,11.0,11.0,86,0.00,,FEW,0.00,0.00,VWS V14.01,2013-10-10 08:14:00,
2013-10-10 04:15:00,80.1,75.5,29.93,NE,50,6.0,11.0,86,0.00,,FEW,0.00,0.00,VWS V14.01,2013-10-10 08:15:00,
2013-10-10 04:16:00,80.1,75.5,29.93,NE,47,8.0,11.0,86,0.00,,FEW,0.00,0.00,VWS V14.01,2013-10-10 08:16:00,
2013-10-10 04:17:00,80.2,76.0,29.93,NE,36,5.0,11.0,87,0.00,,FEW,0.00,0.00,VWS V14.01,2013-10-10 08:17:00,
2013-10-10 04:19:00,80.1,75.5,29.93,NE,54,11.0,12.0,86,0.00,,FEW,0.00,0.00,VWS V14.01,2013-10-10 08:19:00,
2013-10-10 04:20:00,80.1,75.5,29.93,NNE,29,8.0,12.0,86,0.00,,FEW,0.00,0.00,VWS V14.01,2013-10-10 08:20:00,
2013-10-10 04:21:00,80.1,75.5,29.93,NNE,27,4.0,12.0,86,0.00,,FEW,0.00,0.00,VWS V14.01,2013-10-10 08:21:00,
2013-10-10 04:22:00,80.1,75.5,29.93,NNE,24,4.0,12.0,86,0.00,,FEW,0.00,0.00,VWS V14.01,2013-10-10 08:22:00,
2013-10-10 04:24:00,80.1,75.5,29.93,NNE,28,9.0,13.0,86,0.00,,FEW,0.00,0.00,VWS V14.01,2013-10-10 08:24:00,
2013-10-10 04:25:00,80.1,75.5,29.93,NE,38,6.0,13.0,86,0.00,,FEW,0.00,0.00,VWS V14.01,2013-10-10 08:25:00,
2013-10-10 04:26:00,80.1,75.9,29.93,NE,34,6.0,13.0,87,0.00,,FEW,0.00,0.00,VWS V14.01,2013-10-10 08:26:00,
2013-10-10 04:27:00,80.1,75.9,29.93,NE,35,4.0,13.0,87,0.00,,FEW,0.00,0.00,VWS V14.01,2013-10-10 08:27:00,
2013-10-10 04:29:00,80.1,75.9,29.93,ENE,58,9.0,13.0,87,0.00,,FEW,0.00,0.00,VWS V14.01,2013-10-10 08:29:00,
2013-10-10 04:31:00,80.0,75.4,29.93,NE,40,2.0,13.0,86,0.00,,FEW,0.00,0.00,VWS V14.01,2013-10-10 08:31:00,
2013-10-10 04:32:00,80.0,75.4,29.93,NE,49,6.0,13.0,86,0.00,,FEW,0.00,0.00,VWS V14.01,2013-10-10 08:32:00,
2013-10-10 04:33:00,80.0,75.8,29.93,NNE,22,6.0,13.0,87,0.00,,FEW,0.00,0.00,VWS V14.01,2013-10-10 08:33:00,
2013-10-10 04:35:00,80.0,75.8,29.93,NNE,33,4.0,7.0,87,0.00,,FEW,0.00,0.00,VWS V14.01,2013-10-10 08:35:00,
2013-10-10 04:36:00,80.0,75.8,29.93,NE,54,5.0,7.0,87,0.00,,FEW,0.00,0.00,VWS V14.01,2013-10-10 08:36:00,
2013-10-10 04:37:00,80.0,75.8,29.93,NE,35,4.0,11.0,87,0.00,,FEW,0.00,0.00,VWS V14.01,2013-10-10 08:37:00,
2013-10-10 04:38:00,80.0,75.8,29.93,NE,41,9.0,11.0,87,0.00,,FEW,0.00,0.00,VWS V14.01,2013-10-10 08:38:00,
2013-10-10 04:40:00,80.0,75.8,29.93,NE,38,2.0,11.0,87,0.00,,FEW,0.00,0.00,VWS V14.01,2013-10-10 08:40:00,
2013-10-10 04:41:00,80.0,75.8,29.93,NNE,25,9.0,12.0,87,0.00,,FEW,0.00,0.00,VWS V14.01,2013-10-10 08:41:00,
2013-10-10 04:42:00,80.0,75.8,29.93,NNE,22,6.0,12.0,87,0.00,,FEW,0.00,0.00,VWS V14.01,2013-10-10 08:42:00,
2013-10-10 04:43:00,79.9,75.7,29.93,NE,37,7.0,12.0,87,0.00,,FEW,0.00,0.00,VWS V14.01,2013-10-10 08:43:00,
2013-10-10 04:45:00,79.8,75.6,29.93,NE,40,7.0,8.0,87,0.00,,FEW,0.00,0.00,VWS V14.01,2013-10-10 08:45:00,
2013-10-10 04:46:00,79.8,75.6,29.93,NE,34,9.0,10.0,87,0.00,,FEW,0.00,0.00,VWS V14.01,2013-10-10 08:46:00,
2013-10-10 04:47:00,79.7,75.5,29.93,NE,37,8.0,11.0,87,0.00,,FEW,0.00,0.00,VWS V14.01,2013-10-10 08:47:00,
2013-10-10 04:48:00,79.7,75.5,29.94,North,355,5.0,11.0,87,0.00,,FEW,0.00,0.00,VWS V14.01,2013-10-10 08:48:00,
2013-10-10 04:50:00,79.7,75.8,29.94,NNE,33,6.0,11.0,88,0.00,,FEW,0.00,0.00,VWS V14.01,2013-10-10 08:50:00,
2013-10-10 04:51:00,79.7,75.8,29.94,NNE,21,7.0,11.0,88,0.00,,FEW,0.00,0.00,VWS V14.01,2013-10-10 08:51:00,
2013-10-10 04:52:00,79.7,75.8,29.94,ENE,65,7.0,11.0,88,0.00,,FEW,0.00,0.00,VWS V14.01,2013-10-10 08:52:00,
2013-10-10 04:53:00,79.7,75.8,29.94,NE,39,9.0,11.0,88,0.00,,FEW,0.00,0.00,VWS V14.01,2013-10-10 08:53:00,
2013-10-10 04:54:00,79.6,75.7,29.94,NE,49,2.0,11.0,88,0.00,,FEW,0.00,0.00,VWS V14.01,2013-10-10 08:54:00,
2013-10-10 04:55:00,79.6,75.7,29.94,NNE,22,5.0,9.0,88,0.00,,FEW,0.00,0.00,VWS V14.01,2013-10-10 08:55:00,
2013-10-10 04:56:00,79.6,75.7,29.94,NNE,32,4.0,9.0,88,0.00,,FEW,0.00,0.00,VWS V14.01,2013-10-10 08:56:00,
2013-10-10 04:57:00,79.6,75.7,29.94,NE,41,3.0,9.0,88,0.00,,FEW,0.00,0.00,VWS V14.01,2013-10-10 08:57:00,
2013-10-10 04:58:00,79.6,75.7,29.94,NE,41,3.0,10.0,88,0.00,,FEW,0.00,0.00,VWS V14.01,2013-10-10 08:58:00,
2013-10-10 04:59:00,79.6,75.7,29.94,NE,40,7.0,10.0,88,0.00,,FEW,0.00,0.00,VWS V14.01,2013-10-10 08:59:00,
2013-10-10 05:00:00,79.6,75.7,29.94,NE,49,6.0,11.0,88,0.00,,FEW,0.00,0.00,VWS V14.01,2013-10-10 09:00:00,
2013-10-10 05:01:00,79.5,75.6,29.94,NNW,340,9.0,11.0,88,0.00,,FEW,0.00,0.00,VWS V14.01,2013-10-10 09:01:00,
2013-10-10 05:02:00,79.5,75.6,29.94,NE,37,7.0,11.0,88,0.00,,FEW,0.00,0.00,VWS V14.01,2013-10-10 09:02:00,
2013-10-10 05:03:00,79.4,75.5,29.94,NE,42,3.0,11.0,88,0.00,,FEW,0.00,0.00,VWS V14.01,2013-10-10 09:03:00,
2013-10-10 05:04:00,79.4,75.5,29.94,NNE,26,8.0,8.0,88,0.00,,FEW,0.00,0.00,VWS V14.01,2013-10-10 09:04:00,
2013-10-10 05:05:00,79.4,75.5,29.94,NE,43,4.0,11.0,88,0.00,,FEW,0.00,0.00,VWS V14.01,2013-10-10 09:05:00,
2013-10-10 05:06:00,79.4,75.5,29.94,NNE,19,9.0,14.0,88,0.00,,FEW,0.00,0.00,VWS V14.01,2013-10-10 09:06:00,
2013-10-10 05:07:00,79.4,75.5,29.94,NE,52,6.0,14.0,88,0.00,,FEW,0.00,0.00,VWS V14.01,2013-10-10 09:07:00,
2013-10-10 05:08:00,79.4,75.5,29.94,NE,46,4.0,14.0,88,0.00,,FEW,0.00,0.00,VWS V14.01,2013-10-10 09:08:00,
2013-10-10 05:09:00,79.4,75.5,29.94,NE,51,4.0,14.0,88,0.00,,FEW,0.00,0.00,VWS V14.01,2013-10-10 09:09:00,
2013-10-10 05:10:00,79.4,75.5,29.94,NE,34,4.0,14.0,88,0.00,,FEW,0.00,0.00,VWS V14.01,2013-10-10 09:10:00,
2013-10-10 05:12:00,79.4,75.5,29.94,NE,53,6.0,14.0,88,0.00,,FEW,0.00,0.00,VWS V14.01,2013-10-10 09:12:00,
2013-10-10 05:14:00,79.4,75.5,29.94,NNE,29,8.0,14.0,88,0.00,,FEW,0.00,0.00,VWS V14.01,2013-10-10 09:14:00,
2013-10-10 05:15:00,79.4,75.5,29.94,NE,44,4.0,12.0,88,0.00,,FEW,0.00,0.00,VWS V14.01,2013-10-10 09:15:00,
2013-10-10 05:17:00,79.3,75.4,29.94,NE,34,2.0,12.0,88,0.00,,FEW,0.00,0.00,VWS V14.01,2013-10-10 09:17:00,
2013-10-10 05:19:00,79.4,75.5,29.94,NE,40,3.0,12.0,88,0.00,,FEW,0.00,0.00,VWS V14.01,2013-10-10 09:19:00,
2013-10-10 05:20:00,79.4,75.5,29.94,NNE,15,7.0,12.0,88,0.00,,FEW,0.00,0.00,VWS V14.01,2013-10-10 09:20:00,
2013-10-10 05:21:00,79.4,75.5,29.94,NE,34,5.0,12.0,88,0.00,,FEW,0.00,0.00,VWS V14.01,2013-10-10 09:21:00,
2013-10-10 05:22:00,79.3,75.4,29.94,NE,41,7.0,12.0,88,0.00,,FEW,0.00,0.00,VWS V14.01,2013-10-10 09:22:00,
2013-10-10 05:23:00,79.3,75.4,29.94,NE,55,6.0,12.0,88,0.00,,FEW,0.00,0.00,VWS V14.01,2013-10-10 09:23:00,
2013-10-10 05:24:00,79.3,75.4,29.94,NNE,19,7.0,10.0,88,0.00,,FEW,0.00,0.00,VWS V14.01,2013-10-10 09:24:00,
2013-10-10 05:25:00,79.3,75.4,29.94,East,83,8.0,10.0,88,0.00,,FEW,0.00,0.00,VWS V14.01,2013-10-10 09:25:00,
2013-10-10 05:27:00,79.2,75.3,29.94,NE,46,3.0,10.0,88,0.00,,FEW,0.00,0.00,VWS V14.01,2013-10-10 09:27:00,
2013-10-10 05:28:00,79.2,75.3,29.94,NE,56,3.0,10.0,88,0.00,,FEW,0.00,0.00,VWS V14.01,2013-10-10 09:28:00,
2013-10-10 05:30:00,79.2,75.3,29.94,NE,40,8.0,11.0,88,0.00,,FEW,0.00,0.00,VWS V14.01,2013-10-10 09:30:00,
2013-10-10 05:32:00,79.2,75.3,29.94,NE,35,11.0,11.0,88,0.00,,FEW,0.00,0.00,VWS V14.01,2013-10-10 09:32:00,
2013-10-10 05:33:00,79.1,75.2,29.94,NE,34,7.0,12.0,88,0.00,,FEW,0.00,0.00,VWS V14.01,2013-10-10 09:33:00,
2013-10-10 05:35:00,79.1,75.6,29.94,NE,51,7.0,7.0,89,0.00,,FEW,0.00,0.00,VWS V14.01,2013-10-10 09:35:00,
2013-10-10 05:36:00,79.1,75.6,29.94,ENE,73,9.0,12.0,89,0.00,,FEW,0.00,0.00,VWS V14.01,2013-10-10 09:36:00,
2013-10-10 05:37:00,79.1,75.6,29.94,East,85,9.0,12.0,89,0.00,,FEW,0.00,0.00,VWS V14.01,2013-10-10 09:37:00,
2013-10-10 05:38:00,79.1,75.2,29.94,ENE,57,3.0,12.0,88,0.00,,FEW,0.00,0.00,VWS V14.01,2013-10-10 09:38:00,
2013-10-10 05:40:00,79.0,75.5,29.94,NE,37,6.0,12.0,89,0.00,,FEW,0.00,0.00,VWS V14.01,2013-10-10 09:40:00,
2013-10-10 05:41:00,79.0,75.5,29.94,NE,34,7.0,12.0,89,0.00,,FEW,0.00,0.00,VWS V14.01,2013-10-10 09:41:00,
2013-10-10 05:42:00,79.0,75.5,29.94,ENE,60,3.0,12.0,89,0.00,,FEW,0.00,0.00,VWS V14.01,2013-10-10 09:42:00,
2013-10-10 05:43:00,79.1,75.6,29.94,North,5,6.0,12.0,89,0.00,,FEW,0.00,0.00,VWS V14.01,2013-10-10 09:43:00,
2013-10-10 05:45:00,79.1,75.6,29.94,NE,38,5.0,11.0,89,0.00,,FEW,0.00,0.00,VWS V14.01,2013-10-10 09:45:00,
2013-10-10 05:46:00,79.1,75.6,29.94,NE,39,9.0,11.0,89,0.00,,FEW,0.00,0.00,VWS V14.01,2013-10-10 09:46:00,
2013-10-10 05:47:00,79.1,75.6,29.94,NNE,26,6.0,13.0,89,0.00,,FEW,0.00,0.00,VWS V14.01,2013-10-10 09:47:00,
2013-10-10 05:48:00,79.1,75.6,29.94,NE,35,8.0,13.0,89,0.00,,FEW,0.00,0.00,VWS V14.01,2013-10-10 09:48:00,
2013-10-10 05:51:00,79.0,75.5,29.94,NNE,15,6.0,13.0,89,0.00,,FEW,0.00,0.00,VWS V14.01,2013-10-10 09:51:00,
2013-10-10 05:53:00,78.9,75.4,29.94,NE,44,5.0,13.0,89,0.00,,FEW,0.00,0.00,VWS V14.01,2013-10-10 09:53:00,
2013-10-10 05:54:00,78.9,75.4,29.94,NNE,30,2.0,13.0,89,0.00,,FEW,0.00,0.00,VWS V14.01,2013-10-10 09:54:00,
2013-10-10 05:56:00,78.9,75.4,29.94,NE,38,6.0,8.0,89,0.00,,FEW,0.00,0.00,VWS V14.01,2013-10-10 09:56:00,
2013-10-10 05:58:00,79.0,75.5,29.94,ENE,74,5.0,8.0,89,0.00,,FEW,0.00,0.00,VWS V14.01,2013-10-10 09:58:00,
2013-10-10 05:59:00,79.0,75.5,29.94,NNE,30,7.0,8.0,89,0.00,,FEW,0.00,0.00,VWS V14.01,2013-10-10 09:59:00,
2013-10-10 06:01:00,78.9,75.4,29.94,NNE,16,5.0,9.0,89,0.00,,FEW,0.00,0.00,VWS V14.01,2013-10-10 10:01:00,
2013-10-10 06:02:00,78.9,75.4,29.94,NE,36,2.0,9.0,89,0.00,,FEW,0.00,0.00,VWS V14.01,2013-10-10 10:02:00,
2013-10-10 06:03:00,78.9,75.4,29.94,NNE,17,3.0,10.0,89,0.00,,FEW,0.00,0.00,VWS V14.01,2013-10-10 10:03:00,
2013-10-10 06:04:00,78.9,75.4,29.94,NNE,30,4.0,8.0,89,0.00,,FEW,0.00,0.00,VWS V14.01,2013-10-10 10:04:00,
2013-10-10 06:06:00,78.9,75.4,29.94,NE,49,4.0,8.0,89,0.00,,FEW,0.00,0.00,VWS V14.01,2013-10-10 10:06:00,
2013-10-10 06:07:00,78.8,75.3,29.94,NNE,32,5.0,8.0,89,0.00,,FEW,0.00,0.00,VWS V14.01,2013-10-10 10:07:00,
2013-10-10 06:08:00,78.8,75.3,29.94,ENE,69,5.0,8.0,89,0.00,,FEW,0.00,0.00,VWS V14.01,2013-10-10 10:08:00,
2013-10-10 06:09:00,78.8,75.3,29.94,NE,39,6.0,8.0,89,0.00,,FEW,0.00,0.00,VWS V14.01,2013-10-10 10:09:00,
2013-10-10 06:11:00,78.7,75.2,29.94,NE,53,3.0,8.0,89,0.00,,FEW,0.00,0.00,VWS V14.01,2013-10-10 10:11:00,
2013-10-10 06:12:00,78.7,75.2,29.94,NE,39,5.0,8.0,89,0.00,,FEW,0.00,0.00,VWS V14.01,2013-10-10 10:12:00,
2013-10-10 06:13:00,78.8,75.3,29.94,NNE,15,3.0,8.0,89,0.00,,FEW,0.00,0.00,VWS V14.01,2013-10-10 10:13:00,
2013-10-10 06:14:00,78.8,75.3,29.94,NE,51,5.0,5.0,89,0.00,,FEW,0.00,0.00,VWS V14.01,2013-10-10 10:14:00,
2013-10-10 06:15:00,78.8,75.3,29.94,NE,51,5.0,5.0,89,0.00,,FEW,0.00,0.00,VWS V14.01,2013-10-10 10:15:00,
2013-10-10 06:16:00,78.8,75.3,29.94,NE,44,4.0,6.0,89,0.00,,FEW,0.00,0.00,VWS V14.01,2013-10-10 10:16:00,
2013-10-10 06:17:00,78.8,75.3,29.94,NE,34,6.0,8.0,89,0.00,,FEW,0.00,0.00,VWS V14.01,2013-10-10 10:17:00,
2013-10-10 06:18:00,78.8,75.3,29.94,NNE,33,1.0,8.0,89,0.00,,FEW,0.00,0.00,VWS V14.01,2013-10-10 10:18:00,
2013-10-10 06:19:00,78.8,75.3,29.94,NE,46,6.0,8.0,89,0.00,,FEW,0.00,0.00,VWS V14.01,2013-10-10 10:19:00,
2013-10-10 06:20:00,78.8,75.3,29.94,NE,39,5.0,9.0,89,0.00,,FEW,0.00,0.00,VWS V14.01,2013-10-10 10:20:00,
2013-10-10 06:21:00,78.8,75.3,29.94,NNE,27,2.0,9.0,89,0.00,,FEW,0.00,0.00,VWS V14.01,2013-10-10 10:21:00,
2013-10-10 06:22:00,78.8,75.3,29.94,NNE,25,3.0,9.0,89,0.00,,FEW,0.00,0.00,VWS V14.01,2013-10-10 10:22:00,
2013-10-10 06:23:00,78.8,75.3,29.94,NE,41,5.0,9.0,89,0.00,,FEW,0.00,0.00,VWS V14.01,2013-10-10 10:23:00,
2013-10-10 06:24:00,78.7,75.2,29.94,NE,46,3.0,4.0,89,0.00,,FEW,0.00,0.00,VWS V14.01,2013-10-10 10:24:00,
2013-10-10 06:25:00,78.7,75.2,29.94,NNE,32,5.0,6.0,89,0.00,,FEW,0.00,0.00,VWS V14.01,2013-10-10 10:25:00,
2013-10-10 06:26:00,78.7,75.2,29.94,NE,38,4.0,6.0,89,0.00,,FEW,0.00,0.00,VWS V14.01,2013-10-10 10:26:00,
2013-10-10 06:27:00,78.7,75.2,29.94,NNE,32,2.0,6.0,89,0.00,,FEW,0.00,0.00,VWS V14.01,2013-10-10 10:27:00,
2013-10-10 06:28:00,78.7,75.2,29.94,ENE,57,2.0,6.0,89,0.00,,FEW,0.00,0.00,VWS V14.01,2013-10-10 10:28:00,
2013-10-10 06:29:00,78.7,75.2,29.94,NNE,28,3.0,6.0,89,0.00,,FEW,0.00,0.00,VWS V14.01,2013-10-10 10:29:00,
2013-10-10 06:30:00,78.7,75.2,29.94,NNE,28,7.0,7.0,89,0.00,,FEW,0.00,0.00,VWS V14.01,2013-10-10 10:30:00,
2013-10-10 06:31:00,78.7,75.2,29.94,NNE,23,5.0,7.0,89,0.00,,FEW,0.00,0.00,VWS V14.01,2013-10-10 10:31:00,
2013-10-10 06:32:00,78.7,75.5,29.94,ENE,58,5.0,7.0,90,0.00,,FEW,0.00,0.00,VWS V14.01,2013-10-10 10:32:00,
2013-10-10 06:33:00,78.7,75.2,29.94,NE,37,5.0,7.0,89,0.00,,FEW,0.00,0.00,VWS V14.01,2013-10-10 10:33:00,
2013-10-10 06:34:00,78.7,75.2,29.94,NNE,24,6.0,6.0,89,0.00,,FEW,0.00,0.00,VWS V14.01,2013-10-10 10:34:00,
2013-10-10 06:35:00,78.7,75.5,29.94,NE,42,2.0,6.0,90,0.00,,FEW,0.00,0.00,VWS V14.01,2013-10-10 10:35:00,
2013-10-10 06:36:00,78.7,75.2,29.94,NNE,15,5.0,7.0,89,0.00,,FEW,0.00,0.00,VWS V14.01,2013-10-10 10:36:00,
2013-10-10 06:38:00,78.6,75.1,29.94,NNE,26,4.0,7.0,89,0.00,,FEW,0.00,0.00,VWS V14.01,2013-10-10 10:38:00,
2013-10-10 06:39:00,78.6,75.1,29.94,NE,34,2.0,7.0,89,0.00,,FEW,0.00,0.00,VWS V14.01,2013-10-10 10:39:00,
2013-10-10 06:40:00,78.6,75.1,29.94,NE,40,4.0,7.0,89,0.00,,FEW,0.00,0.00,VWS V14.01,2013-10-10 10:40:00,
2013-10-10 06:42:00,78.6,75.4,29.94,NE,42,2.0,7.0,90,0.00,,FEW,0.00,0.00,VWS V14.01,2013-10-10 10:42:00,
2013-10-10 06:43:00,78.6,75.4,29.94,NNE,30,1.0,7.0,90,0.00,,FEW,0.00,0.00,VWS V14.01,2013-10-10 10:43:00,
2013-10-10 06:44:00,78.6,75.4,29.94,NE,42,3.0,4.0,90,0.00,,FEW,0.00,0.00,VWS V14.01,2013-10-10 10:44:00,
2013-10-10 06:45:00,78.6,75.4,29.94,NE,34,5.0,7.0,90,0.00,,FEW,0.00,0.00,VWS V14.01,2013-10-10 10:45:00,
2013-10-10 06:47:00,78.6,75.4,29.94,NE,46,3.0,7.0,90,0.00,,FEW,0.00,0.00,VWS V14.01,2013-10-10 10:47:00,
2013-10-10 06:48:00,78.6,75.4,29.94,NE,44,3.0,10.0,90,0.00,,FEW,0.00,0.00,VWS V14.01,2013-10-10 10:48:00,
2013-10-10 06:49:00,78.5,75.3,29.94,NE,45,4.0,10.0,90,0.00,,FEW,0.00,0.00,VWS V14.01,2013-10-10 10:49:00,
2013-10-10 06:50:00,78.5,75.3,29.94,NE,42,4.0,10.0,90,0.00,,FEW,0.00,0.00,VWS V14.01,2013-10-10 10:50:00,
2013-10-10 06:51:00,78.5,75.3,29.94,NNE,23,3.0,10.0,90,0.00,,FEW,0.00,0.00,VWS V14.01,2013-10-10 10:51:00,
2013-10-10 06:52:00,78.5,75.3,29.94,NE,35,3.0,10.0,90,0.00,,FEW,0.00,0.00,VWS V14.01,2013-10-10 10:52:00,
2013-10-10 06:54:00,78.5,75.3,29.94,NNE,30,5.0,10.0,90,0.00,,FEW,0.00,0.00,VWS V14.01,2013-10-10 10:54:00,
2013-10-10 06:55:00,78.5,75.3,29.94,NNE,33,3.0,5.0,90,0.00,,FEW,0.00,0.00,VWS V14.01,2013-10-10 10:55:00,
2013-10-10 06:56:00,78.5,75.3,29.94,NE,36,4.0,7.0,90,0.00,,FEW,0.00,0.00,VWS V14.01,2013-10-10 10:56:00,
2013-10-10 06:57:00,78.5,75.3,29.94,NE,42,3.0,7.0,90,0.00,,FEW,0.00,0.00,VWS V14.01,2013-10-10 10:57:00,
2013-10-10 06:59:00,78.5,75.3,29.94,NE,36,6.0,8.0,90,0.00,,FEW,0.00,0.00,VWS V14.01,2013-10-10 10:59:00,
2013-10-10 07:00:00,78.5,75.3,29.94,NE,47,3.0,8.0,90,0.00,,FEW,0.00,0.00,VWS V14.01,2013-10-10 11:00:00,
2013-10-10 07:01:00,78.4,75.2,29.94,NNE,32,4.0,8.0,90,0.00,,FEW,0.00,0.00,VWS V14.01,2013-10-10 11:01:00,
2013-10-10 07:02:00,78.4,75.2,29.94,NNE,30,3.0,8.0,90,0.00,,FEW,0.00,0.00,VWS V14.01,2013-10-10 11:02:00,
2013-10-10 07:04:00,78.4,75.2,29.94,NNE,17,2.0,2.0,90,0.00,,FEW,0.00,0.00,VWS V14.01,2013-10-10 11:04:00,
2013-10-10 07:05:00,78.4,75.2,29.94,NE,40,6.0,6.0,90,0.00,,FEW,0.00,0.00,VWS V14.01,2013-10-10 11:05:00,
2013-10-10 07:06:00,78.4,75.2,29.94,NNE,22,6.0,6.0,90,0.00,,FEW,0.00,0.00,VWS V14.01,2013-10-10 11:06:00,
2013-10-10 07:07:00,78.4,75.2,29.94,NE,42,2.0,8.0,90,0.00,,FEW,0.00,0.00,VWS V14.01,2013-10-10 11:07:00,
2013-10-10 07:09:00,78.4,75.2,29.94,ENE,62,4.0,8.0,90,0.00,,FEW,0.00,0.00,VWS V14.01,2013-10-10 11:09:00,
2013-10-10 07:10:00,78.4,75.2,29.94,NNE,23,4.0,8.0,90,0.00,,FEW,0.00,0.00,VWS V14.01,2013-10-10 11:10:00,
2013-10-10 07:11:00,78.4,75.2,29.94,NNE,32,4.0,8.0,90,0.00,,FEW,0.00,0.00,VWS V14.01,2013-10-10 11:11:00,
2013-10-10 07:12:00,78.4,75.2,29.94,NNE,28,3.0,8.0,90,0.00,,FEW,0.00,0.00,VWS V14.01,2013-10-10 11:12:00,
2013-10-10 07:14:00,78.4,75.2,29.94,NNE,26,1.0,4.0,90,0.00,,FEW,0.00,0.00,VWS V14.01,2013-10-10 11:14:00,
2013-10-10 07:15:00,78.4,75.2,29.94,NNE,26,0.0,4.0,90,0.00,,FEW,0.00,0.00,VWS V14.01,2013-10-10 11:15:00,
2013-10-10 07:16:00,78.4,75.2,29.94,NNE,31,4.0,4.0,90,0.00,,FEW,0.00,0.00,VWS V14.01,2013-10-10 11:16:00,
2013-10-10 07:18:00,78.4,75.2,29.94,NE,42,4.0,5.0,90,0.00,,FEW,0.00,0.00,VWS V14.01,2013-10-10 11:18:00,
2013-10-10 07:19:00,78.4,75.2,29.94,East,79,6.0,7.0,90,0.00,,FEW,0.00,0.00,VWS V14.01,2013-10-10 11:19:00,
2013-10-10 07:20:00,78.4,75.2,29.94,ENE,73,8.0,8.0,90,0.00,,FEW,0.00,0.00,VWS V14.01,2013-10-10 11:20:00,
2013-10-10 07:21:00,78.4,75.2,29.94,NE,52,4.0,8.0,90,0.00,,FEW,0.00,0.00,VWS V14.01,2013-10-10 11:21:00,
2013-10-10 07:22:00,78.4,75.2,29.94,NNE,22,2.0,8.0,90,0.00,,FEW,0.00,0.00,VWS V14.01,2013-10-10 11:22:00,
2013-10-10 07:23:00,78.4,75.2,29.94,NE,41,2.0,8.0,90,0.00,,FEW,0.00,0.00,VWS V14.01,2013-10-10 11:23:00,
2013-10-10 07:24:00,78.3,75.1,29.94,NNE,30,3.0,7.0,90,0.00,,FEW,0.00,0.00,VWS V14.01,2013-10-10 11:24:00,
2013-10-10 07:25:00,78.4,75.2,29.94,NE,41,4.0,7.0,90,0.00,,FEW,0.00,0.00,VWS V14.01,2013-10-10 11:25:00,
2013-10-10 07:26:00,78.3,75.1,29.94,NNE,32,5.0,7.0,90,0.00,,FEW,0.00,5.00,VWS V14.01,2013-10-10 11:26:00,
2013-10-10 07:27:00,78.3,75.1,29.94,NE,40,5.0,7.0,90,0.00,,FEW,0.00,5.00,VWS V14.01,2013-10-10 11:27:00,
2013-10-10 07:29:00,78.3,75.1,29.94,NE,42,2.0,7.0,90,0.00,,FEW,0.00,5.00,VWS V14.01,2013-10-10 11:29:00,
2013-10-10 07:30:00,78.3,75.1,29.94,NE,37,2.0,7.0,90,0.00,,FEW,0.00,5.00,VWS V14.01,2013-10-10 11:30:00,
2013-10-10 07:31:00,78.4,75.2,29.94,NNE,25,4.0,7.0,90,0.00,,FEW,0.00,7.00,VWS V14.01,2013-10-10 11:31:00,
2013-10-10 07:32:00,78.3,75.1,29.94,NE,40,2.0,7.0,90,0.00,,FEW,0.00,7.00,VWS V14.01,2013-10-10 11:32:00,
2013-10-10 07:33:00,78.3,75.1,29.94,NE,34,6.0,7.0,90,0.00,,FEW,0.00,7.00,VWS V14.01,2013-10-10 11:33:00,
2013-10-10 07:34:00,78.3,75.1,29.94,North,5,7.0,7.0,90,0.00,,FEW,0.00,7.00,VWS V14.01,2013-10-10 11:34:00,
2013-10-10 07:35:00,78.3,75.1,29.94,NNE,16,3.0,7.0,90,0.00,,FEW,0.00,9.00,VWS V14.01,2013-10-10 11:35:00,
2013-10-10 07:36:00,78.3,75.1,29.94,NE,44,3.0,7.0,90,0.00,,FEW,0.00,9.00,VWS V14.01,2013-10-10 11:36:00,
2013-10-10 07:37:00,78.4,75.2,29.94,NE,39,3.0,7.0,90,0.00,,FEW,0.00,11.00,VWS V14.01,2013-10-10 11:37:00,
2013-10-10 07:38:00,78.4,75.2,29.94,NE,35,4.0,7.0,90,0.00,,FEW,0.00,11.00,VWS V14.01,2013-10-10 11:38:00,
2013-10-10 07:39:00,78.4,75.2,29.94,NE,38,8.0,8.0,90,0.00,,FEW,0.00,11.00,VWS V14.01,2013-10-10 11:39:00,
2013-10-10 07:40:00,78.4,75.2,29.94,NE,36,2.0,8.0,90,0.00,,FEW,0.00,11.00,VWS V14.01,2013-10-10 11:40:00,
2013-10-10 07:41:00,78.4,75.2,29.94,NE,36,3.0,8.0,90,0.00,,FEW,0.00,12.00,VWS V14.01,2013-10-10 11:41:00,
2013-10-10 07:42:00,78.4,75.2,29.94,NE,34,2.0,8.0,90,0.00,,FEW,0.00,12.00,VWS V14.01,2013-10-10 11:42:00,
2013-10-10 07:43:00,78.4,75.2,29.94,NE,39,6.0,8.0,90,0.00,,FEW,0.00,12.00,VWS V14.01,2013-10-10 11:43:00,
2013-10-10 07:45:00,78.4,75.2,29.94,NE,46,3.0,7.0,90,0.00,,FEW,0.00,14.00,VWS V14.01,2013-10-10 11:45:00,
2013-10-10 07:46:00,78.4,75.2,29.94,NE,39,2.0,7.0,90,0.00,,FEW,0.00,16.00,VWS V14.01,2013-10-10 11:46:00,
2013-10-10 07:48:00,78.4,75.2,29.94,NE,47,2.0,7.0,90,0.00,,FEW,0.00,21.00,VWS V14.01,2013-10-10 11:48:00,
2013-10-10 07:50:00,78.5,75.3,29.94,NNE,29,5.0,7.0,90,0.00,,FEW,0.00,21.00,VWS V14.01,2013-10-10 11:50:00,
2013-10-10 07:51:00,78.5,75.7,29.94,NE,46,5.0,7.0,91,0.00,,FEW,0.00,21.00,VWS V14.01,2013-10-10 11:51:00,
2013-10-10 07:52:00,78.5,75.7,29.94,NNE,24,6.0,7.0,91,0.00,,FEW,0.00,21.00,VWS V14.01,2013-10-10 11:52:00,
2013-10-10 07:53:00,78.5,75.3,29.94,NE,48,5.0,7.0,90,0.00,,FEW,0.00,21.00,VWS V14.01,2013-10-10 11:53:00,
2013-10-10 07:55:00,78.5,75.7,29.94,NNE,26,6.0,7.0,91,0.00,,FEW,0.00,39.00,VWS V14.01,2013-10-10 11:55:00,
2013-10-10 07:57:00,78.6,75.8,29.94,NNE,24,2.0,7.0,91,0.00,,FEW,0.00,25.00,VWS V14.01,2013-10-10 11:57:00,
2013-10-10 07:58:00,78.6,75.8,29.94,ENE,57,4.0,7.0,91,0.00,,FEW,0.00,37.00,VWS V14.01,2013-10-10 11:58:00,
2013-10-10 08:00:00,78.6,75.8,29.94,NNE,20,6.0,7.0,91,0.00,,FEW,0.00,28.00,VWS V14.01,2013-10-10 12:00:00,
2013-10-10 08:02:00,78.6,75.8,29.94,NE,51,5.0,7.0,91,0.00,,FEW,0.00,28.00,VWS V14.01,2013-10-10 12:02:00,
2013-10-10 08:03:00,78.6,75.8,29.95,NNE,18,2.0,8.0,91,0.00,,FEW,0.00,40.00,VWS V14.01,2013-10-10 12:03:00,
2013-10-10 08:05:00,78.7,75.9,29.95,NNE,30,9.0,9.0,91,0.00,,FEW,0.00,44.00,VWS V14.01,2013-10-10 12:05:00,
2013-10-10 08:07:00,78.7,75.9,29.95,ENE,61,3.0,9.0,91,0.00,,FEW,0.00,44.00,VWS V14.01,2013-10-10 12:07:00,
2013-10-10 08:08:00,78.7,75.9,29.95,NE,41,6.0,9.0,91,0.00,,FEW,0.00,54.00,VWS V14.01,2013-10-10 12:08:00,
2013-10-10 08:09:00,78.7,75.9,29.95,NE,39,4.0,9.0,91,0.00,,FEW,0.00,54.00,VWS V14.01,2013-10-10 12:09:00,
2013-10-10 08:10:00,78.8,75.9,29.95,NNE,31,3.0,9.0,91,0.00,,FEW,0.00,76.00,VWS V14.01,2013-10-10 12:10:00,
2013-10-10 08:11:00,78.8,75.9,29.95,NNE,24,2.0,9.0,91,0.00,,FEW,0.00,76.00,VWS V14.01,2013-10-10 12:11:00,
2013-10-10 08:12:00,78.8,75.9,29.95,NNE,19,8.0,11.0,91,0.00,,FEW,0.00,69.00,VWS V14.01,2013-10-10 12:12:00,
2013-10-10 08:13:00,78.8,75.9,29.95,NE,41,6.0,11.0,91,0.00,,FEW,0.00,72.00,VWS V14.01,2013-10-10 12:13:00,
2013-10-10 08:14:00,78.8,75.9,29.95,NE,46,6.0,11.0,91,0.00,,FEW,0.00,83.00,VWS V14.01,2013-10-10 12:14:00,
2013-10-10 08:15:00,78.8,75.6,29.95,NE,34,7.0,9.0,90,0.00,,FEW,0.00,91.00,VWS V14.01,2013-10-10 12:15:00,
2013-10-10 08:16:00,78.8,75.6,29.95,North,5,4.0,9.0,90,0.00,,FEW,0.00,63.00,VWS V14.01,2013-10-10 12:16:00,
2013-10-10 08:17:00,78.8,75.6,29.95,NNE,15,8.0,9.0,90,0.00,,FEW,0.00,63.00,VWS V14.01,2013-10-10 12:17:00,
2013-10-10 08:18:00,78.8,75.6,29.96,North,5,9.0,9.0,90,0.00,,FEW,0.00,79.00,VWS V14.01,2013-10-10 12:18:00,
2013-10-10 08:19:00,78.8,75.6,29.96,NNE,32,6.0,9.0,90,0.00,,FEW,0.00,76.00,VWS V14.01,2013-10-10 12:19:00,
2013-10-10 08:20:00,78.8,75.6,29.96,NE,51,5.0,9.0,90,0.00,,FEW,0.00,70.00,VWS V14.01,2013-10-10 12:20:00,
2013-10-10 08:21:00,78.8,75.6,29.96,NNE,26,7.0,9.0,90,0.00,,FEW,0.00,76.00,VWS V14.01,2013-10-10 12:21:00,
2013-10-10 08:22:00,78.8,75.6,29.96,NNE,22,4.0,9.0,90,0.00,,FEW,0.00,97.00,VWS V14.01,2013-10-10 12:22:00,
2013-10-10 08:23:00,78.9,75.7,29.96,NNE,28,5.0,9.0,90,0.00,,FEW,0.00,84.00,VWS V14.01,2013-10-10 12:23:00,
2013-10-10 08:24:00,78.9,75.7,29.96,NE,36,3.0,3.0,90,0.00,,FEW,0.00,81.00,VWS V14.01,2013-10-10 12:24:00,
2013-10-10 08:25:00,78.9,75.7,29.96,NE,43,4.0,8.0,90,0.00,,FEW,0.00,98.00,VWS V14.01,2013-10-10 12:25:00,
2013-10-10 08:26:00,78.9,75.7,29.96,NE,47,4.0,8.0,90,0.00,,FEW,0.00,98.00,VWS V14.01,2013-10-10 12:26:00,
2013-10-10 08:27:00,79.0,75.8,29.96,NNE,18,2.0,8.0,90,0.00,,FEW,0.00,123.00,VWS V14.01,2013-10-10 12:27:00,
2013-10-10 08:28:00,79.1,75.9,29.96,NNE,31,7.0,8.0,90,0.00,,FEW,0.00,132.00,VWS V14.01,2013-10-10 12:28:00,
2013-10-10 08:29:00,79.1,75.9,29.96,NNE,25,4.0,8.0,90,0.00,,FEW,0.00,181.00,VWS V14.01,2013-10-10 12:29:00,
2013-10-10 08:30:00,79.2,76.0,29.96,NE,34,3.0,9.0,90,0.00,,FEW,0.00,114.00,VWS V14.01,2013-10-10 12:30:00,
2013-10-10 08:31:00,79.2,76.0,29.96,NE,53,4.0,9.0,90,0.00,,FEW,0.00,128.00,VWS V14.01,2013-10-10 12:31:00,
2013-10-10 08:32:00,79.2,76.0,29.96,North,355,8.0,9.0,90,0.00,,FEW,0.00,227.00,VWS V14.01,2013-10-10 12:32:00,
2013-10-10 08:33:00,79.2,76.0,29.96,NNE,17,5.0,9.0,90,0.00,,FEW,0.00,218.00,VWS V14.01,2013-10-10 12:33:00,
2013-10-10 08:34:00,79.3,76.1,29.96,ENE,67,2.0,6.0,90,0.00,,FEW,0.00,204.00,VWS V14.01,2013-10-10 12:34:00,
2013-10-10 08:36:00,79.3,76.1,29.96,NE,51,3.0,9.0,90,0.00,,FEW,0.00,183.00,VWS V14.01,2013-10-10 12:36:00,
2013-10-10 08:37:00,79.4,76.2,29.96,NE,53,11.0,11.0,90,0.00,,FEW,0.00,183.00,VWS V14.01,2013-10-10 12:37:00,
2013-10-10 08:38:00,79.3,75.8,29.96,NE,50,8.0,11.0,89,0.00,,FEW,0.00,153.00,VWS V14.01,2013-10-10 12:38:00,
2013-10-10 08:39:00,79.3,75.8,29.96,NE,51,4.0,11.0,89,0.00,,FEW,0.00,227.00,VWS V14.01,2013-10-10 12:39:00,
2013-10-10 08:41:00,79.4,75.9,29.96,NE,42,3.0,11.0,89,0.00,,FEW,0.00,206.00,VWS V14.01,2013-10-10 12:41:00,
2013-10-10 08:42:00,79.4,75.9,29.96,NE,40,3.0,11.0,89,0.00,,FEW,0.00,120.00,VWS V14.01,2013-10-10 12:42:00,
2013-10-10 08:43:00,79.5,76.0,29.96,NE,36,7.0,11.0,89,0.00,,FEW,0.00,120.00,VWS V14.01,2013-10-10 12:43:00,
2013-10-10 08:44:00,79.5,76.0,29.96,ENE,59,5.0,11.0,89,0.00,,FEW,0.00,120.00,VWS V14.01,2013-10-10 12:44:00,
2013-10-10 08:46:00,79.6,76.1,29.96,NE,34,3.0,8.0,89,0.00,,FEW,0.00,128.00,VWS V14.01,2013-10-10 12:46:00,
2013-10-10 08:47:00,79.6,76.1,29.96,NE,44,8.0,8.0,89,0.00,,FEW,0.00,297.00,VWS V14.01,2013-10-10 12:47:00,
2013-10-10 08:48:00,79.6,75.7,29.96,NNE,32,2.0,8.0,88,0.00,,FEW,0.00,297.00,VWS V14.01,2013-10-10 12:48:00,
2013-10-10 08:49:00,79.7,75.8,29.96,NE,41,9.0,9.0,88,0.00,,FEW,0.00,279.00,VWS V14.01,2013-10-10 12:49:00,
2013-10-10 08:51:00,79.6,75.7,29.96,NNE,25,4.0,10.0,88,0.00,,FEW,0.00,258.00,VWS V14.01,2013-10-10 12:51:00,
2013-10-10 08:52:00,79.6,75.7,29.96,NE,35,8.0,10.0,88,0.00,,FEW,0.00,262.00,VWS V14.01,2013-10-10 12:52:00,
2013-10-10 08:53:00,79.6,75.7,29.96,NE,44,8.0,10.0,88,0.00,,FEW,0.00,262.00,VWS V14.01,2013-10-10 12:53:00,
2013-10-10 08:54:00,79.7,75.8,29.96,ENE,71,9.0,9.0,88,0.00,,FEW,0.00,274.00,VWS V14.01,2013-10-10 12:54:00,
2013-10-10 08:56:00,79.8,75.9,29.96,NE,49,4.0,9.0,88,0.00,,FEW,0.00,264.00,VWS V14.01,2013-10-10 12:56:00,
2013-10-10 08:57:00,79.9,76.0,29.96,NNE,19,8.0,9.0,88,0.00,,FEW,0.00,262.00,VWS V14.01,2013-10-10 12:57:00,
2013-10-10 08:58:00,79.9,76.0,29.96,NE,38,5.0,9.0,88,0.00,,FEW,0.00,278.00,VWS V14.01,2013-10-10 12:58:00,
2013-10-10 08:59:00,79.9,75.7,29.96,NNE,30,2.0,9.0,87,0.00,,FEW,0.00,281.00,VWS V14.01,2013-10-10 12:59:00,
2013-10-10 09:02:00,79.9,75.7,29.96,ENE,69,9.0,9.0,87,0.00,,FEW,0.00,290.00,VWS V14.01,2013-10-10 13:02:00,
2013-10-10 09:03:00,79.9,75.3,29.97,NE,46,6.0,9.0,86,0.00,,FEW,0.00,295.00,VWS V14.01,2013-10-10 13:03:00,
2013-10-10 09:04:00,79.9,75.3,29.97,NE,35,5.0,10.0,86,0.00,,FEW,0.00,301.00,VWS V14.01,2013-10-10 13:04:00,
2013-10-10 09:05:00,80.0,75.8,29.97,NE,52,4.0,10.0,87,0.00,,FEW,0.00,301.00,VWS V14.01,2013-10-10 13:05:00,
2013-10-10 09:07:00,80.0,75.4,29.97,NE,38,6.0,10.0,86,0.00,,FEW,0.00,309.00,VWS V14.01,2013-10-10 13:07:00,
2013-10-10 09:08:00,80.0,75.4,29.97,NNE,25,3.0,10.0,86,0.00,,FEW,0.00,313.00,VWS V14.01,2013-10-10 13:08:00,
2013-10-10 09:10:00,80.1,75.5,29.97,NE,40,2.0,10.0,86,0.00,,FEW,0.00,323.00,VWS V14.01,2013-10-10 13:10:00,
2013-10-10 09:12:00,80.3,75.7,29.97,ENE,59,8.0,10.0,86,0.00,,FEW,0.00,329.00,VWS V14.01,2013-10-10 13:12:00,
2013-10-10 09:13:00,80.3,75.7,29.97,NE,55,5.0,10.0,86,0.00,,FEW,0.00,334.00,VWS V14.01,2013-10-10 13:13:00,
2013-10-10 09:16:00,80.4,75.8,29.97,NNE,25,3.0,8.0,86,0.00,,FEW,0.00,339.00,VWS V14.01,2013-10-10 13:16:00,
2013-10-10 09:17:00,80.4,75.8,29.97,NE,40,3.0,9.0,86,0.00,,FEW,0.00,348.00,VWS V14.01,2013-10-10 13:17:00,
2013-10-10 09:18:00,80.4,75.8,29.97,NNE,33,5.0,9.0,86,0.00,,FEW,0.00,348.00,VWS V14.01,2013-10-10 13:18:00,
2013-10-10 09:21:00,80.5,75.9,29.97,NNE,20,5.0,9.0,86,0.00,,FEW,0.00,362.00,VWS V14.01,2013-10-10 13:21:00,
2013-10-10 09:22:00,80.5,75.6,29.97,NE,38,7.0,9.0,85,0.00,,FEW,0.00,364.00,VWS V14.01,2013-10-10 13:22:00,
2013-10-10 09:23:00,80.5,75.6,29.97,NE,42,4.0,9.0,85,0.00,,FEW,0.00,371.00,VWS V14.01,2013-10-10 13:23:00,
2013-10-10 09:26:00,80.7,76.1,29.97,NNE,28,3.0,8.0,86,0.00,,FEW,0.00,378.00,VWS V14.01,2013-10-10 13:26:00,
2013-10-10 09:28:00,80.7,76.1,29.97,NE,37,2.0,8.0,86,0.00,,FEW,0.00,387.00,VWS V14.01,2013-10-10 13:28:00,
2013-10-10 09:31:00,80.8,76.2,29.97,NNE,32,7.0,10.0,86,0.00,,FEW,0.00,401.00,VWS V14.01,2013-10-10 13:31:00,
2013-10-10 09:33:00,80.8,76.2,29.97,NE,47,5.0,10.0,86,0.00,,FEW,0.00,404.00,VWS V14.01,2013-10-10 13:33:00,
2013-10-10 09:36:00,80.8,76.2,29.97,NNW,343,6.0,10.0,86,0.00,,FEW,0.00,418.00,VWS V14.01,2013-10-10 13:36:00,
2013-10-10 09:37:00,80.8,76.2,29.97,NNE,29,6.0,10.0,86,0.00,,FEW,0.00,418.00,VWS V14.01,2013-10-10 13:37:00,
2013-10-10 09:38:00,80.8,76.2,29.97,NE,42,5.0,10.0,86,0.00,,FEW,0.00,418.00,VWS V14.01,2013-10-10 13:38:00,
2013-10-10 09:39:00,80.8,76.2,29.97,NE,41,7.0,10.0,86,0.00,,FEW,0.00,432.00,VWS V14.01,2013-10-10 13:39:00,
2013-10-10 09:42:00,80.8,76.2,29.97,NE,36,7.0,13.0,86,0.00,,FEW,0.00,455.00,VWS V14.01,2013-10-10 13:42:00,
2013-10-10 09:43:00,80.9,76.3,29.97,NE,40,5.0,13.0,86,0.00,,FEW,0.00,383.00,VWS V14.01,2013-10-10 13:43:00,
2013-10-10 09:44:00,80.9,76.3,29.97,NE,52,5.0,13.0,86,0.00,,FEW,0.00,455.00,VWS V14.01,2013-10-10 13:44:00,
2013-10-10 09:47:00,80.9,76.3,29.97,NNE,29,4.0,13.0,86,0.00,,FEW,0.00,469.00,VWS V14.01,2013-10-10 13:47:00,
2013-10-10 09:48:00,81.0,76.4,29.98,NE,49,3.0,13.0,86,0.00,,FEW,0.00,473.00,VWS V14.01,2013-10-10 13:48:00,
2013-10-10 09:49:00,81.1,76.5,29.98,ENE,71,4.0,13.0,86,0.00,,FEW,0.00,480.00,VWS V14.01,2013-10-10 13:49:00,
2013-10-10 09:52:00,81.1,76.2,29.98,NE,42,6.0,13.0,85,0.00,,FEW,0.00,492.00,VWS V14.01,2013-10-10 13:52:00,
2013-10-10 09:53:00,81.1,76.2,29.98,ENE,59,4.0,13.0,85,0.00,,FEW,0.00,499.00,VWS V14.01,2013-10-10 13:53:00,
2013-10-10 09:54:00,81.1,76.2,29.98,NNE,13,5.0,13.0,85,0.00,,FEW,0.00,501.00,VWS V14.01,2013-10-10 13:54:00,
2013-10-10 09:58:00,81.2,76.3,29.98,NE,42,7.0,10.0,85,0.00,,FEW,0.00,510.00,VWS V14.01,2013-10-10 13:58:00,
2013-10-10 09:59:00,81.3,76.4,29.98,NNE,16,9.0,10.0,85,0.00,,FEW,0.00,506.00,VWS V14.01,2013-10-10 13:59:00,
2013-10-10 10:03:00,81.3,76.4,29.99,NE,46,3.0,10.0,85,0.00,,FEW,0.00,415.00,VWS V14.01,2013-10-10 14:03:00,
2013-10-10 10:04:00,81.3,76.4,29.99,NE,44,7.0,7.0,85,0.00,,FEW,0.00,522.00,VWS V14.01,2013-10-10 14:04:00,
2013-10-10 10:08:00,81.3,76.0,29.99,NNE,23,7.0,10.0,84,0.00,,FEW,0.00,533.00,VWS V14.01,2013-10-10 14:08:00,
2013-10-10 10:09:00,81.3,76.4,29.99,NE,52,5.0,10.0,85,0.00,,FEW,0.00,534.00,VWS V14.01,2013-10-10 14:09:00,
2013-10-10 10:13:00,81.4,76.5,29.99,NE,42,6.0,10.0,85,0.00,,FEW,0.00,552.00,VWS V14.01,2013-10-10 14:13:00,
2013-10-10 10:14:00,81.4,76.5,29.99,NE,44,5.0,10.0,85,0.00,,FEW,0.00,552.00,VWS V14.01,2013-10-10 14:14:00,
2013-10-10 10:15:00,81.4,76.1,29.99,NNE,17,7.0,11.0,84,0.00,,FEW,0.00,555.00,VWS V14.01,2013-10-10 14:15:00,
2013-10-10 10:19:00,81.5,76.6,29.99,NNE,28,6.0,11.0,85,0.00,,FEW,0.00,612.00,VWS V14.01,2013-10-10 14:19:00,
2013-10-10 10:20:00,81.7,76.8,29.99,NNE,23,6.0,11.0,85,0.00,,FEW,0.00,629.00,VWS V14.01,2013-10-10 14:20:00,
2013-10-10 10:24:00,82.0,77.1,29.99,NNE,17,5.0,11.0,85,0.00,,FEW,0.00,429.00,VWS V14.01,2013-10-10 14:24:00,
2013-10-10 10:25:00,82.1,77.2,29.99,NE,42,4.0,9.0,85,0.00,,FEW,0.00,585.00,VWS V14.01,2013-10-10 14:25:00,
2013-10-10 10:29:00,82.1,76.8,29.99,ENE,71,5.0,11.0,84,0.00,,FEW,0.00,684.00,VWS V14.01,2013-10-10 14:29:00,
2013-10-10 10:30:00,82.0,76.7,29.99,NNE,22,5.0,11.0,84,0.00,,FEW,0.00,624.00,VWS V14.01,2013-10-10 14:30:00,
2013-10-10 10:34:00,82.1,76.8,29.99,NE,36,8.0,8.0,84,0.00,,FEW,0.00,640.00,VWS V14.01,2013-10-10 14:34:00,
2013-10-10 10:35:00,82.1,76.8,29.99,NNE,24,5.0,10.0,84,0.00,,FEW,0.00,640.00,VWS V14.01,2013-10-10 14:35:00,
2013-10-10 10:36:00,82.0,76.7,29.99,NE,44,7.0,10.0,84,0.00,,FEW,0.00,640.00,VWS V14.01,2013-10-10 14:36:00,
2013-10-10 10:39:00,82.1,76.8,29.99,ENE,59,4.0,10.0,84,0.00,,FEW,0.00,663.00,VWS V14.01,2013-10-10 14:39:00,
2013-10-10 10:40:00,82.0,76.7,29.99,NE,34,5.0,10.0,84,0.00,,FEW,0.00,656.00,VWS V14.01,2013-10-10 14:40:00,
2013-10-10 10:41:00,82.0,76.7,29.99,NNE,28,5.0,10.0,84,0.00,,FEW,0.00,664.00,VWS V14.01,2013-10-10 14:41:00,
2013-10-10 10:44:00,82.1,76.8,29.99,NE,44,6.0,6.0,84,0.00,,FEW,0.00,696.00,VWS V14.01,2013-10-10 14:44:00,
2013-10-10 10:45:00,82.1,76.8,29.99,NNE,19,5.0,6.0,84,0.00,,FEW,0.00,696.00,VWS V14.01,2013-10-10 14:45:00,
2013-10-10 10:46:00,82.1,76.8,29.99,NE,44,2.0,9.0,84,0.00,,FEW,0.00,613.00,VWS V14.01,2013-10-10 14:46:00,
2013-10-10 10:49:00,82.3,77.0,29.99,East,97,3.0,9.0,84,0.00,,FEW,0.00,677.00,VWS V14.01,2013-10-10 14:49:00,
2013-10-10 10:50:00,82.4,77.1,29.99,North,11,4.0,9.0,84,0.00,,FEW,0.00,675.00,VWS V14.01,2013-10-10 14:50:00,
2013-10-10 10:51:00,82.5,77.2,29.99,NNE,19,4.0,9.0,84,0.00,,FEW,0.00,677.00,VWS V14.01,2013-10-10 14:51:00,
2013-10-10 10:54:00,82.7,77.0,29.99,ENE,58,3.0,6.0,83,0.00,,FEW,0.00,698.00,VWS V14.01,2013-10-10 14:54:00,
2013-10-10 10:55:00,82.8,77.1,29.99,NE,40,4.0,6.0,83,0.00,,FEW,0.00,728.00,VWS V14.01,2013-10-10 14:55:00,
2013-10-10 10:56:00,82.9,77.2,29.99,North,10,3.0,8.0,83,0.00,,FEW,0.00,728.00,VWS V14.01,2013-10-10 14:56:00,
2013-10-10 11:00:00,82.7,77.0,29.99,NE,44,3.0,10.0,83,0.00,,FEW,0.00,353.00,VWS V14.01,2013-10-10 15:00:00,
2013-10-10 11:01:00,82.7,77.0,29.99,NE,49,2.0,10.0,83,0.00,,FEW,0.00,594.00,VWS V14.01,2013-10-10 15:01:00,
2013-10-10 11:02:00,82.9,77.2,29.99,NE,36,3.0,10.0,83,0.00,,FEW,0.00,594.00,VWS V14.01,2013-10-10 15:02:00,
2013-10-10 11:05:00,82.9,77.2,29.99,NE,48,4.0,9.0,83,0.00,,FEW,0.00,594.00,VWS V14.01,2013-10-10 15:05:00,
2013-10-10 11:06:00,82.8,77.1,29.99,NE,46,2.0,9.0,83,0.00,,FEW,0.00,501.00,VWS V14.01,2013-10-10 15:06:00,
2013-10-10 11:07:00,82.7,76.7,29.99,NE,39,4.0,9.0,82,0.00,,FEW,0.00,501.00,VWS V14.01,2013-10-10 15:07:00,
2013-10-10 11:10:00,83.0,77.3,29.99,NE,35,4.0,10.0,83,0.00,,FEW,0.00,717.00,VWS V14.01,2013-10-10 15:10:00,
2013-10-10 11:11:00,83.0,76.9,29.99,NE,52,6.0,10.0,82,0.00,,FEW,0.00,717.00,VWS V14.01,2013-10-10 15:11:00,
2013-10-10 11:12:00,82.9,76.8,29.99,NE,43,5.0,10.0,82,0.00,,FEW,0.00,717.00,VWS V14.01,2013-10-10 15:12:00,
2013-10-10 11:15:00,82.8,76.8,29.99,NE,46,6.0,10.0,82,0.00,,FEW,0.00,701.00,VWS V14.01,2013-10-10 15:15:00,
2013-10-10 11:16:00,82.8,76.8,29.99,NE,47,7.0,10.0,82,0.00,,FEW,0.00,707.00,VWS V14.01,2013-10-10 15:16:00,
2013-10-10 11:17:00,82.7,76.7,29.99,NE,40,5.0,10.0,82,0.00,,FEW,0.00,708.00,VWS V14.01,2013-10-10 15:17:00,
2013-10-10 11:20:00,82.9,76.8,30.00,North,355,8.0,10.0,82,0.00,,FEW,0.00,710.00,VWS V14.01,2013-10-10 15:20:00,
2013-10-10 11:21:00,82.9,76.8,30.00,NE,49,10.0,10.0,82,0.00,,FEW,0.00,710.00,VWS V14.01,2013-10-10 15:21:00,
2013-10-10 11:22:00,82.9,76.8,30.00,NE,55,7.0,10.0,82,0.00,,FEW,0.00,710.00,VWS V14.01,2013-10-10 15:22:00,
2013-10-10 11:23:00,83.0,76.9,30.00,North,350,6.0,10.0,82,0.00,,FEW,0.00,712.00,VWS V14.01,2013-10-10 15:23:00,
2013-10-10 11:26:00,83.1,77.0,30.00,ESE,122,7.0,10.0,82,0.00,,FEW,0.00,715.00,VWS V14.01,2013-10-10 15:26:00,
2013-10-10 11:28:00,83.2,77.1,30.00,NE,50,5.0,10.0,82,0.00,,FEW,0.00,715.00,VWS V14.01,2013-10-10 15:28:00,
2013-10-10 11:31:00,83.4,77.0,30.00,NE,44,7.0,10.0,81,0.00,,FEW,0.00,726.00,VWS V14.01,2013-10-10 15:31:00,
2013-10-10 11:33:00,83.4,76.6,30.00,NE,40,11.0,11.0,80,0.00,,FEW,0.00,728.00,VWS V14.01,2013-10-10 15:33:00,
2013-10-10 11:36:00,83.6,77.2,30.00,NE,40,5.0,9.0,81,0.00,,FEW,0.00,737.00,VWS V14.01,2013-10-10 15:36:00,
2013-10-10 11:37:00,83.7,77.2,30.00,NNE,29,6.0,9.0,81,0.00,,FEW,0.00,737.00,VWS V14.01,2013-10-10 15:37:00,
2013-10-10 11:38:00,83.9,77.4,30.00,ENE,66,10.0,10.0,81,0.00,,FEW,0.00,740.00,VWS V14.01,2013-10-10 15:38:00,
2013-10-10 11:41:00,83.8,77.0,30.00,NE,46,4.0,10.0,80,0.00,,FEW,0.00,745.00,VWS V14.01,2013-10-10 15:41:00,
2013-10-10 11:42:00,83.9,77.1,30.00,NE,34,6.0,10.0,80,0.00,,FEW,0.00,747.00,VWS V14.01,2013-10-10 15:42:00,
2013-10-10 11:43:00,83.8,77.0,30.00,NE,38,6.0,10.0,80,0.00,,FEW,0.00,747.00,VWS V14.01,2013-10-10 15:43:00,
2013-10-10 11:44:00,83.8,77.0,30.00,NE,40,7.0,10.0,80,0.00,,FEW,0.00,751.00,VWS V14.01,2013-10-10 15:44:00,
2013-10-10 11:46:00,83.8,77.0,30.00,NNE,30,7.0,10.0,80,0.00,,FEW,0.00,754.00,VWS V14.01,2013-10-10 15:46:00,
2013-10-10 11:47:00,83.7,76.9,30.00,NE,35,5.0,10.0,80,0.00,,FEW,0.00,756.00,VWS V14.01,2013-10-10 15:47:00,
2013-10-10 11:48:00,83.8,77.0,30.00,NE,35,8.0,10.0,80,0.00,,FEW,0.00,758.00,VWS V14.01,2013-10-10 15:48:00,
2013-10-10 11:49:00,83.8,77.0,30.00,NE,40,5.0,10.0,80,0.00,,FEW,0.00,759.00,VWS V14.01,2013-10-10 15:49:00,
2013-10-10 11:51:00,84.0,77.2,30.00,ENE,64,7.0,10.0,80,0.00,,FEW,0.00,773.00,VWS V14.01,2013-10-10 15:51:00,
2013-10-10 11:52:00,84.0,77.2,30.00,NNE,32,5.0,10.0,80,0.00,,FEW,0.00,773.00,VWS V14.01,2013-10-10 15:52:00,
2013-10-10 11:53:00,84.1,77.3,30.00,NE,44,5.0,10.0,80,0.00,,FEW,0.00,766.00,VWS V14.01,2013-10-10 15:53:00,
2013-10-10 11:54:00,84.1,76.9,30.00,NE,40,8.0,9.0,79,0.00,,FEW,0.00,765.00,VWS V14.01,2013-10-10 15:54:00,
2013-10-10 11:56:00,84.1,76.9,30.00,NE,49,7.0,11.0,79,0.00,,FEW,0.00,765.00,VWS V14.01,2013-10-10 15:56:00,
2013-10-10 11:57:00,84.0,76.8,30.00,NE,36,8.0,11.0,79,0.00,,FEW,0.00,770.00,VWS V14.01,2013-10-10 15:57:00,
2013-10-10 11:58:00,84.0,76.8,30.00,NE,44,6.0,11.0,79,0.00,,FEW,0.00,770.00,VWS V14.01,2013-10-10 15:58:00,
2013-10-10 11:59:00,84.0,76.8,30.00,NE,34,8.0,11.0,79,0.00,,FEW,0.00,775.00,VWS V14.01,2013-10-10 15:59:00,
2013-10-10 12:00:00,84.0,76.8,30.00,NE,34,8.0,11.0,79,0.00,,FEW,0.00,780.00,VWS V14.01,2013-10-10 16:00:00,
2013-10-10 12:01:00,84.0,76.8,30.00,NNE,24,6.0,11.0,79,0.00,,FEW,0.00,782.00,VWS V14.01,2013-10-10 16:01:00,
2013-10-10 12:02:00,84.0,76.8,30.00,NNE,22,7.0,11.0,79,0.00,,FEW,0.00,780.00,VWS V14.01,2013-10-10 16:02:00,
2013-10-10 12:03:00,84.0,76.8,30.00,NE,51,5.0,11.0,79,0.00,,FEW,0.00,784.00,VWS V14.01,2013-10-10 16:03:00,
2013-10-10 12:04:00,84.0,76.8,30.00,NNE,33,5.0,7.0,79,0.00,,FEW,0.00,810.00,VWS V14.01,2013-10-10 16:04:00,
2013-10-10 12:05:00,84.0,77.2,30.00,NNE,22,7.0,10.0,80,0.00,,FEW,0.00,796.00,VWS V14.01,2013-10-10 16:05:00,
2013-10-10 12:07:00,83.9,76.7,30.00,NE,37,5.0,10.0,79,0.00,,FEW,0.00,793.00,VWS V14.01,2013-10-10 16:07:00,
2013-10-10 12:08:00,84.0,76.8,30.00,NNE,28,3.0,10.0,79,0.00,,FEW,0.00,803.00,VWS V14.01,2013-10-10 16:08:00,
2013-10-10 12:09:00,84.0,76.8,30.00,NNE,31,4.0,10.0,79,0.00,,FEW,0.00,803.00,VWS V14.01,2013-10-10 16:09:00,
2013-10-10 12:10:00,84.1,76.9,30.00,NE,35,5.0,10.0,79,0.00,,FEW,0.00,803.00,VWS V14.01,2013-10-10 16:10:00,
2013-10-10 12:12:00,84.3,77.1,30.00,NE,40,4.0,10.0,79,0.00,,FEW,0.00,795.00,VWS V14.01,2013-10-10 16:12:00,
2013-10-10 12:13:00,84.3,77.1,30.00,NE,46,5.0,10.0,79,0.00,,FEW,0.00,793.00,VWS V14.01,2013-10-10 16:13:00,
2013-10-10 12:14:00,84.4,76.8,30.00,NE,36,4.0,10.0,78,0.00,,FEW,0.00,793.00,VWS V14.01,2013-10-10 16:14:00,
2013-10-10 12:15:00,84.5,76.9,30.00,NE,39,8.0,8.0,78,0.00,,FEW,0.00,793.00,VWS V14.01,2013-10-10 16:15:00,
2013-10-10 12:16:00,84.6,77.0,30.00,NNE,26,3.0,9.0,78,0.00,,FEW,0.00,793.00,VWS V14.01,2013-10-10 16:16:00,
2013-10-10 12:17:00,84.5,76.5,30.00,NE,44,3.0,10.0,77,0.00,,FEW,0.00,793.00,VWS V14.01,2013-10-10 16:17:00,
2013-10-10 12:18:00,84.5,76.9,29.99,NE,49,3.0,10.0,78,0.00,,FEW,0.00,793.00,VWS V14.01,2013-10-10 16:18:00,
2013-10-10 12:19:00,84.5,76.9,29.99,NE,40,5.0,10.0,78,0.00,,FEW,0.00,793.00,VWS V14.01,2013-10-10 16:19:00,
2013-10-10 12:20:00,84.6,76.6,29.99,NE,39,5.0,11.0,77,0.00,,FEW,0.00,798.00,VWS V14.01,2013-10-10 16:20:00,
2013-10-10 12:21:00,84.6,76.6,29.99,NE,42,8.0,11.0,77,0.00,,FEW,0.00,798.00,VWS V14.01,2013-10-10 16:21:00,
2013-10-10 12:22:00,84.6,76.6,29.99,NE,36,4.0,11.0,77,0.00,,FEW,0.00,800.00,VWS V14.01,2013-10-10 16:22:00,
2013-10-10 12:23:00,84.6,76.6,29.99,NE,51,11.0,11.0,77,0.00,,FEW,0.00,800.00,VWS V14.01,2013-10-10 16:23:00,
2013-10-10 12:24:00,84.6,76.6,29.99,ENE,76,4.0,4.0,77,0.00,,FEW,0.00,800.00,VWS V14.01,2013-10-10 16:24:00,
2013-10-10 12:25:00,84.7,76.7,29.99,NNE,29,6.0,8.0,77,0.00,,FEW,0.00,798.00,VWS V14.01,2013-10-10 16:25:00,
2013-10-10 12:26:00,84.8,76.8,29.99,NNE,22,5.0,10.0,77,0.00,,FEW,0.00,800.00,VWS V14.01,2013-10-10 16:26:00,
2013-10-10 12:27:00,84.7,76.7,29.99,NNE,20,4.0,10.0,77,0.00,,FEW,0.00,800.00,VWS V14.01,2013-10-10 16:27:00,
2013-10-10 12:28:00,84.9,76.9,29.99,ENE,65,5.0,10.0,77,0.00,,FEW,0.00,802.00,VWS V14.01,2013-10-10 16:28:00,
2013-10-10 12:29:00,84.9,76.9,29.99,NNE,27,7.0,12.0,77,0.00,,FEW,0.00,805.00,VWS V14.01,2013-10-10 16:29:00,
2013-10-10 12:31:00,84.7,76.7,29.99,NE,36,5.0,12.0,77,0.00,,FEW,0.00,800.00,VWS V14.01,2013-10-10 16:31:00,
2013-10-10 12:32:00,84.7,76.7,29.99,ENE,57,5.0,12.0,77,0.00,,FEW,0.00,802.00,VWS V14.01,2013-10-10 16:32:00,
2013-10-10 12:33:00,84.6,76.6,29.99,NE,44,6.0,12.0,77,0.00,,FEW,0.00,805.00,VWS V14.01,2013-10-10 16:33:00,
2013-10-10 12:34:00,84.6,76.6,29.99,NE,51,4.0,8.0,77,0.00,,FEW,0.00,805.00,VWS V14.01,2013-10-10 16:34:00,
2013-10-10 12:36:00,84.8,76.8,29.99,ENE,71,7.0,9.0,77,0.00,,FEW,0.00,807.00,VWS V14.01,2013-10-10 16:36:00,
2013-10-10 12:37:00,84.7,76.7,29.99,NNE,29,5.0,11.0,77,0.00,,FEW,0.00,807.00,VWS V14.01,2013-10-10 16:37:00,
2013-10-10 12:39:00,84.7,76.7,29.99,NE,47,10.0,11.0,77,0.00,,FEW,0.00,809.00,VWS V14.01,2013-10-10 16:39:00,
2013-10-10 12:40:00,84.7,76.7,29.99,ENE,64,4.0,11.0,77,0.00,,FEW,0.00,809.00,VWS V14.01,2013-10-10 16:40:00,
2013-10-10 12:41:00,84.8,76.8,29.99,NE,44,6.0,11.0,77,0.00,,FEW,0.00,807.00,VWS V14.01,2013-10-10 16:41:00,
2013-10-10 12:42:00,84.9,77.3,29.99,NNE,29,7.0,11.0,78,0.00,,FEW,0.00,809.00,VWS V14.01,2013-10-10 16:42:00,
2013-10-10 12:44:00,85.0,77.0,29.99,NE,51,3.0,11.0,77,0.00,,FEW,0.00,812.00,VWS V14.01,2013-10-10 16:44:00,
2013-10-10 12:45:00,85.0,77.0,29.99,ENE,59,5.0,8.0,77,0.00,,FEW,0.00,812.00,VWS V14.01,2013-10-10 16:45:00,
2013-10-10 12:46:00,85.0,76.6,29.99,NE,45,8.0,11.0,76,0.00,,FEW,0.00,814.00,VWS V14.01,2013-10-10 16:46:00,
2013-10-10 12:47:00,84.9,76.9,29.99,NNE,18,7.0,11.0,77,0.00,,FEW,0.00,814.00,VWS V14.01,2013-10-10 16:47:00,
2013-10-10 12:49:00,85.0,76.6,29.99,NE,49,4.0,11.0,76,0.00,,FEW,0.00,812.00,VWS V14.01,2013-10-10 16:49:00,
2013-10-10 12:50:00,85.0,76.6,29.99,NE,48,4.0,11.0,76,0.00,,FEW,0.00,814.00,VWS V14.01,2013-10-10 16:50:00,
2013-10-10 12:51:00,85.1,77.1,29.99,NNE,30,7.0,11.0,77,0.00,,FEW,0.00,816.00,VWS V14.01,2013-10-10 16:51:00,
2013-10-10 12:52:00,85.1,77.1,29.99,NNE,16,5.0,11.0,77,0.00,,FEW,0.00,816.00,VWS V14.01,2013-10-10 16:52:00,
2013-10-10 12:53:00,85.1,77.1,29.99,East,84,8.0,11.0,77,0.00,,FEW,0.00,816.00,VWS V14.01,2013-10-10 16:53:00,
2013-10-10 12:54:00,85.2,77.2,29.99,NNE,26,10.0,10.0,77,0.00,,FEW,0.00,817.00,VWS V14.01,2013-10-10 16:54:00,
2013-10-10 12:55:00,85.2,76.8,29.99,NE,46,4.0,10.0,76,0.00,,FEW,0.00,817.00,VWS V14.01,2013-10-10 16:55:00,
2013-10-10 12:57:00,85.3,77.3,29.99,NE,40,5.0,10.0,77,0.00,,FEW,0.00,817.00,VWS V14.01,2013-10-10 16:57:00,
2013-10-10 12:58:00,85.5,77.1,29.99,NE,34,6.0,10.0,76,0.00,,FEW,0.00,817.00,VWS V14.01,2013-10-10 16:58:00,
2013-10-10 12:59:00,85.5,77.1,29.99,ENE,78,4.0,10.0,76,0.00,,FEW,0.00,816.00,VWS V14.01,2013-10-10 16:59:00,
2013-10-10 13:00:00,85.6,77.2,29.99,ENE,69,3.0,10.0,76,0.00,,FEW,0.00,816.00,VWS V14.01,2013-10-10 17:00:00,
2013-10-10 13:02:00,85.6,77.2,29.99,NE,49,7.0,10.0,76,0.00,,FEW,0.00,819.00,VWS V14.01,2013-10-10 17:02:00,
2013-10-10 13:03:00,85.6,77.2,29.98,NE,39,9.0,10.0,76,0.00,,FEW,0.00,819.00,VWS V14.01,2013-10-10 17:03:00,
2013-10-10 13:04:00,85.6,77.2,29.98,NE,40,7.0,10.0,76,0.00,,FEW,0.00,817.00,VWS V14.01,2013-10-10 17:04:00,
2013-10-10 13:05:00,85.5,76.7,29.98,NNE,13,4.0,10.0,75,0.00,,FEW,0.00,819.00,VWS V14.01,2013-10-10 17:05:00,
2013-10-10 13:06:00,85.4,76.6,29.98,NNE,28,4.0,10.0,75,0.00,,FEW,0.00,819.00,VWS V14.01,2013-10-10 17:06:00,
2013-10-10 13:07:00,85.5,77.1,29.98,NE,35,5.0,10.0,76,0.00,,FEW,0.00,819.00,VWS V14.01,2013-10-10 17:07:00,
2013-10-10 13:08:00,85.5,77.1,29.98,NE,43,6.0,10.0,76,0.00,,FEW,0.00,819.00,VWS V14.01,2013-10-10 17:08:00,
2013-10-10 13:09:00,85.5,76.7,29.98,ENE,76,5.0,10.0,75,0.00,,FEW,0.00,819.00,VWS V14.01,2013-10-10 17:09:00,
2013-10-10 13:11:00,85.5,76.7,29.98,ENE,59,9.0,10.0,75,0.00,,FEW,0.00,823.00,VWS V14.01,2013-10-10 17:11:00,
2013-10-10 13:12:00,85.4,76.6,29.98,NE,42,5.0,10.0,75,0.00,,FEW,0.00,821.00,VWS V14.01,2013-10-10 17:12:00,
2013-10-10 13:13:00,85.4,76.6,29.98,NE,40,8.0,10.0,75,0.00,,FEW,0.00,819.00,VWS V14.01,2013-10-10 17:13:00,
2013-10-10 13:14:00,85.4,76.6,29.98,NNE,31,4.0,5.0,75,0.00,,FEW,0.00,817.00,VWS V14.01,2013-10-10 17:14:00,
2013-10-10 13:15:00,85.5,76.7,29.98,NE,44,4.0,8.0,75,0.00,,FEW,0.00,819.00,VWS V14.01,2013-10-10 17:15:00,
2013-10-10 13:16:00,85.5,76.7,29.98,NNE,25,10.0,10.0,75,0.00,,FEW,0.00,819.00,VWS V14.01,2013-10-10 17:16:00,
2013-10-10 13:17:00,85.6,76.8,29.98,NNE,15,6.0,10.0,75,0.00,,FEW,0.00,816.00,VWS V14.01,2013-10-10 17:17:00,
2013-10-10 13:18:00,85.6,76.8,29.97,NNE,31,6.0,10.0,75,0.00,,FEW,0.00,816.00,VWS V14.01,2013-10-10 17:18:00,
2013-10-10 13:19:00,85.8,77.0,29.97,NNE,26,9.0,10.0,75,0.00,,FEW,0.00,817.00,VWS V14.01,2013-10-10 17:19:00,
2013-10-10 13:20:00,85.9,77.1,29.97,NNE,27,7.0,10.0,75,0.00,,FEW,0.00,817.00,VWS V14.01,2013-10-10 17:20:00,
2013-10-10 13:21:00,85.9,77.1,29.97,NE,49,6.0,11.0,75,0.00,,FEW,0.00,817.00,VWS V14.01,2013-10-10 17:21:00,
2013-10-10 13:22:00,85.9,77.1,29.97,NE,46,4.0,11.0,75,0.00,,FEW,0.00,819.00,VWS V14.01,2013-10-10 17:22:00,
2013-10-10 13:23:00,85.9,77.1,29.97,NNE,32,5.0,11.0,75,0.00,,FEW,0.00,819.00,VWS V14.01,2013-10-10 17:23:00,
2013-10-10 13:24:00,86.0,76.8,29.97,NE,34,4.0,10.0,74,0.00,,FEW,0.00,819.00,VWS V14.01,2013-10-10 17:24:00,
2013-10-10 13:25:00,86.1,77.2,29.97,NE,35,6.0,10.0,75,0.00,,FEW,0.00,817.00,VWS V14.01,2013-10-10 17:25:00,
2013-10-10 13:26:00,86.1,77.2,29.97,NNE,25,4.0,12.0,75,0.00,,FEW,0.00,817.00,VWS V14.01,2013-10-10 17:26:00,
2013-10-10 13:28:00,86.0,76.3,29.97,NE,49,5.0,12.0,73,0.00,,FEW,0.00,817.00,VWS V14.01,2013-10-10 17:28:00,
2013-10-10 13:30:00,85.9,76.7,29.97,NNE,19,6.0,12.0,74,0.00,,FEW,0.00,817.00,VWS V14.01,2013-10-10 17:30:00,
2013-10-10 13:31:00,85.8,76.6,29.97,NNE,29,5.0,12.0,74,0.00,,FEW,0.00,814.00,VWS V14.01,2013-10-10 17:31:00,
2013-10-10 13:33:00,85.8,77.0,29.97,NNE,13,3.0,12.0,75,0.00,,FEW,0.00,816.00,VWS V14.01,2013-10-10 17:33:00,
2013-10-10 13:35:00,86.0,77.2,29.97,East,84,5.0,5.0,75,0.00,,FEW,0.00,816.00,VWS V14.01,2013-10-10 17:35:00,
2013-10-10 13:36:00,86.4,77.5,29.97,NE,42,1.0,5.0,75,0.00,,FEW,0.00,816.00,VWS V14.01,2013-10-10 17:36:00,
2013-10-10 13:38:00,86.6,77.3,29.97,NE,46,5.0,9.0,74,0.00,,FEW,0.00,814.00,VWS V14.01,2013-10-10 17:38:00,
2013-10-10 13:40:00,86.3,76.6,29.97,NE,40,4.0,10.0,73,0.00,,FEW,0.00,814.00,VWS V14.01,2013-10-10 17:40:00,
2013-10-10 13:41:00,86.2,76.5,29.97,NE,42,5.0,10.0,73,0.00,,FEW,0.00,814.00,VWS V14.01,2013-10-10 17:41:00,
2013-10-10 13:42:00,86.1,76.4,29.97,NNE,19,4.0,10.0,73,0.00,,FEW,0.00,809.00,VWS V14.01,2013-10-10 17:42:00,
2013-10-10 13:43:00,86.1,76.4,29.97,NE,53,2.0,10.0,73,0.00,,FEW,0.00,814.00,VWS V14.01,2013-10-10 17:43:00,
2013-10-10 13:45:00,86.3,77.0,29.97,NE,52,6.0,9.0,74,0.00,,FEW,0.00,810.00,VWS V14.01,2013-10-10 17:45:00,
2013-10-10 13:46:00,86.5,76.8,29.97,ENE,59,5.0,9.0,73,0.00,,FEW,0.00,810.00,VWS V14.01,2013-10-10 17:46:00,
2013-10-10 13:47:00,86.4,76.7,29.97,NE,53,9.0,9.0,73,0.00,,FEW,0.00,810.00,VWS V14.01,2013-10-10 17:47:00,
2013-10-10 13:48:00,86.3,76.2,29.96,NE,36,3.0,9.0,72,0.00,,FEW,0.00,809.00,VWS V14.01,2013-10-10 17:48:00,
2013-10-10 13:50:00,86.2,76.5,29.96,NE,55,5.0,9.0,73,0.00,,FEW,0.00,805.00,VWS V14.01,2013-10-10 17:50:00,
2013-10-10 13:52:00,86.3,77.0,29.96,NE,42,2.0,9.0,74,0.00,,FEW,0.00,807.00,VWS V14.01,2013-10-10 17:52:00,
2013-10-10 13:53:00,86.4,77.1,29.96,NE,34,5.0,9.0,74,0.00,,FEW,0.00,805.00,VWS V14.01,2013-10-10 17:53:00,
2013-10-10 13:54:00,86.4,76.7,29.96,NE,35,6.0,9.0,73,0.00,,FEW,0.00,805.00,VWS V14.01,2013-10-10 17:54:00,
2013-10-10 13:55:00,86.4,76.7,29.96,NNE,26,8.0,8.0,73,0.00,,FEW,0.00,805.00,VWS V14.01,2013-10-10 17:55:00,
2013-10-10 13:57:00,86.6,76.9,29.96,NE,38,5.0,8.0,73,0.00,,FEW,0.00,802.00,VWS V14.01,2013-10-10 17:57:00,
2013-10-10 13:58:00,86.7,76.6,29.96,NNE,23,3.0,8.0,72,0.00,,FEW,0.00,800.00,VWS V14.01,2013-10-10 17:58:00,
2013-10-10 13:59:00,86.7,76.6,29.96,ENE,62,5.0,8.0,72,0.00,,FEW,0.00,800.00,VWS V14.01,2013-10-10 17:59:00,
2013-10-10 14:00:00,86.7,76.6,29.96,NE,46,8.0,9.0,72,0.00,,FEW,0.00,798.00,VWS V14.01,2013-10-10 18:00:00,
2013-10-10 14:02:00,86.6,76.5,29.96,NE,51,2.0,9.0,72,0.00,,FEW,0.00,798.00,VWS V14.01,2013-10-10 18:02:00,
2013-10-10 14:03:00,86.6,76.1,29.95,NNE,26,6.0,9.0,71,0.00,,FEW,0.00,798.00,VWS V14.01,2013-10-10 18:03:00,
2013-10-10 14:04:00,86.6,76.1,29.95,NE,36,4.0,9.0,71,0.00,,FEW,0.00,795.00,VWS V14.01,2013-10-10 18:04:00,
2013-10-10 14:05:00,86.5,76.0,29.95,ENE,78,5.0,8.0,71,0.00,,FEW,0.00,793.00,VWS V14.01,2013-10-10 18:05:00,
2013-10-10 14:06:00,86.5,76.4,29.95,NE,51,1.0,8.0,72,0.00,,FEW,0.00,793.00,VWS V14.01,2013-10-10 18:06:00,
2013-10-10 14:07:00,86.5,76.4,29.95,NE,44,10.0,10.0,72,0.00,,FEW,0.00,793.00,VWS V14.01,2013-10-10 18:07:00,
2013-10-10 14:08:00,86.5,76.4,29.95,NE,38,6.0,10.0,72,0.00,,FEW,0.00,793.00,VWS V14.01,2013-10-10 18:08:00,
2013-10-10 14:09:00,86.5,76.0,29.95,NE,45,8.0,10.0,71,0.00,,FEW,0.00,793.00,VWS V14.01,2013-10-10 18:09:00,
2013-10-10 14:11:00,86.3,75.8,29.95,NE,36,6.0,10.0,71,0.00,,FEW,0.00,789.00,VWS V14.01,2013-10-10 18:11:00,
2013-10-10 14:12:00,86.3,75.8,29.95,North,5,5.0,10.0,71,0.00,,FEW,0.00,788.00,VWS V14.01,2013-10-10 18:12:00,
2013-10-10 14:13:00,86.4,75.9,29.95,NE,36,3.0,10.0,71,0.00,,FEW,0.00,786.00,VWS V14.01,2013-10-10 18:13:00,
2013-10-10 14:14:00,86.6,76.5,29.95,NE,39,2.0,3.0,72,0.00,,FEW,0.00,784.00,VWS V14.01,2013-10-10 18:14:00,
2013-10-10 14:16:00,86.9,76.8,29.95,NNE,14,4.0,7.0,72,0.00,,FEW,0.00,782.00,VWS V14.01,2013-10-10 18:16:00,
2013-10-10 14:18:00,87.1,76.6,29.95,NE,44,6.0,9.0,71,0.00,,FEW,0.00,779.00,VWS V14.01,2013-10-10 18:18:00,
2013-10-10 14:20:00,86.9,76.4,29.94,NNE,26,5.0,9.0,71,0.00,,FEW,0.00,779.00,VWS V14.01,2013-10-10 18:20:00,
2013-10-10 14:21:00,86.8,75.8,29.94,NNE,32,5.0,9.0,70,0.00,,FEW,0.00,777.00,VWS V14.01,2013-10-10 18:21:00,
2013-10-10 14:22:00,86.8,75.8,29.94,NNE,30,6.0,9.0,70,0.00,,FEW,0.00,777.00,VWS V14.01,2013-10-10 18:22:00,
2013-10-10 14:23:00,86.7,75.8,29.94,NNE,26,5.0,9.0,70,0.00,,FEW,0.00,775.00,VWS V14.01,2013-10-10 18:23:00,
2013-10-10 14:24:00,86.7,76.2,29.94,ENE,67,3.0,9.0,71,0.00,,FEW,0.00,772.00,VWS V14.01,2013-10-10 18:24:00,
2013-10-10 14:25:00,86.8,76.3,29.94,NE,53,4.0,6.0,71,0.00,,FEW,0.00,773.00,VWS V14.01,2013-10-10 18:25:00,
2013-10-10 14:26:00,86.7,76.2,29.94,NE,35,2.0,7.0,71,0.00,,FEW,0.00,772.00,VWS V14.01,2013-10-10 18:26:00,
2013-10-10 14:27:00,86.8,76.7,29.94,NE,51,3.0,7.0,72,0.00,,FEW,0.00,768.00,VWS V14.01,2013-10-10 18:27:00,
2013-10-10 14:28:00,86.8,76.7,29.94,NE,56,3.0,8.0,72,0.00,,FEW,0.00,768.00,VWS V14.01,2013-10-10 18:28:00,
2013-10-10 14:29:00,86.9,76.4,29.94,NE,44,6.0,8.0,71,0.00,,FEW,0.00,765.00,VWS V14.01,2013-10-10 18:29:00,
2013-10-10 14:30:00,86.9,76.4,29.94,NE,40,4.0,8.0,71,0.00,,FEW,0.00,766.00,VWS V14.01,2013-10-10 18:30:00,
2013-10-10 14:31:00,86.8,76.3,29.94,NE,42,3.0,8.0,71,0.00,,FEW,0.00,763.00,VWS V14.01,2013-10-10 18:31:00,
2013-10-10 14:32:00,86.8,76.3,29.94,NNE,33,6.0,9.0,71,0.00,,FEW,0.00,761.00,VWS V14.01,2013-10-10 18:32:00,
2013-10-10 14:34:00,86.8,75.8,29.94,NE,34,5.0,9.0,70,0.00,,FEW,0.00,761.00,VWS V14.01,2013-10-10 18:34:00,
2013-10-10 14:35:00,86.6,75.7,29.94,NE,37,6.0,7.0,70,0.00,,FEW,0.00,758.00,VWS V14.01,2013-10-10 18:35:00,
2013-10-10 14:36:00,86.6,76.1,29.94,NNE,25,6.0,7.0,71,0.00,,FEW,0.00,758.00,VWS V14.01,2013-10-10 18:36:00,
2013-10-10 14:38:00,86.6,76.1,29.94,East,80,2.0,8.0,71,0.00,,FEW,0.00,756.00,VWS V14.01,2013-10-10 18:38:00,
2013-10-10 14:39:00,86.7,76.2,29.94,ENE,71,2.0,8.0,71,0.00,,FEW,0.00,756.00,VWS V14.01,2013-10-10 18:39:00,
2013-10-10 14:40:00,86.8,75.8,29.94,NNE,31,3.0,8.0,70,0.00,,FEW,0.00,751.00,VWS V14.01,2013-10-10 18:40:00,
2013-10-10 14:41:00,86.9,75.9,29.94,NNE,19,4.0,8.0,70,0.00,,FEW,0.00,749.00,VWS V14.01,2013-10-10 18:41:00,
2013-10-10 14:43:00,87.0,76.5,29.94,NE,41,6.0,8.0,71,0.00,,FEW,0.00,744.00,VWS V14.01,2013-10-10 18:43:00,
2013-10-10 14:44:00,86.9,75.9,29.94,NE,51,5.0,5.0,70,0.00,,FEW,0.00,742.00,VWS V14.01,2013-10-10 18:44:00,
2013-10-10 14:45:00,86.7,75.8,29.94,NE,45,3.0,7.0,70,0.00,,FEW,0.00,740.00,VWS V14.01,2013-10-10 18:45:00,
2013-10-10 14:46:00,86.7,75.8,29.94,NE,55,4.0,7.0,70,0.00,,FEW,0.00,740.00,VWS V14.01,2013-10-10 18:46:00,
2013-10-10 14:49:00,87.0,76.0,29.94,NE,39,5.0,7.0,70,0.00,,FEW,0.00,731.00,VWS V14.01,2013-10-10 18:49:00,
2013-10-10 14:50:00,87.0,75.6,29.94,NE,48,4.0,8.0,69,0.00,,FEW,0.00,728.00,VWS V14.01,2013-10-10 18:50:00,
2013-10-10 14:51:00,87.2,76.2,29.94,North,5,4.0,8.0,70,0.00,,FEW,0.00,724.00,VWS V14.01,2013-10-10 18:51:00,
2013-10-10 14:54:00,87.6,76.6,29.94,NNE,17,6.0,8.0,70,0.00,,FEW,0.00,724.00,VWS V14.01,2013-10-10 18:54:00,
2013-10-10 14:55:00,87.3,75.4,29.94,NNE,32,7.0,8.0,68,0.00,,FEW,0.00,717.00,VWS V14.01,2013-10-10 18:55:00,
2013-10-10 14:56:00,87.0,75.6,29.94,NE,44,4.0,9.0,69,0.00,,FEW,0.00,714.00,VWS V14.01,2013-10-10 18:56:00,
2013-10-10 14:59:00,86.9,75.5,29.94,NE,49,3.0,9.0,69,0.00,,FEW,0.00,714.00,VWS V14.01,2013-10-10 18:59:00,
2013-10-10 15:00:00,86.8,75.8,29.94,NE,45,4.0,9.0,70,0.00,,FEW,0.00,712.00,VWS V14.01,2013-10-10 19:00:00,
2013-10-10 15:02:00,86.8,76.3,29.94,NNE,32,5.0,9.0,71,0.00,,FEW,0.00,708.00,VWS V14.01,2013-10-10 19:02:00,
2013-10-10 15:04:00,86.9,75.9,29.94,NE,50,4.0,5.0,70,0.00,,FEW,0.00,703.00,VWS V14.01,2013-10-10 19:04:00,
2013-10-10 15:05:00,86.9,75.9,29.94,NE,42,2.0,5.0,70,0.00,,FEW,0.00,698.00,VWS V14.01,2013-10-10 19:05:00,
2013-10-10 15:06:00,87.1,76.1,29.94,NE,40,4.0,5.0,70,0.00,,FEW,0.00,700.00,VWS V14.01,2013-10-10 19:06:00,
2013-10-10 15:07:00,87.1,76.1,29.94,NNE,26,4.0,5.0,70,0.00,,FEW,0.00,700.00,VWS V14.01,2013-10-10 19:07:00,
2013-10-10 15:09:00,87.3,76.3,29.94,NNE,20,1.0,5.0,70,0.00,,FEW,0.00,694.00,VWS V14.01,2013-10-10 19:09:00,
2013-10-10 15:10:00,87.3,76.3,29.94,NE,35,5.0,5.0,70,0.00,,FEW,0.00,693.00,VWS V14.01,2013-10-10 19:10:00,
2013-10-10 15:11:00,87.2,75.8,29.94,NE,46,3.0,6.0,69,0.00,,FEW,0.00,689.00,VWS V14.01,2013-10-10 19:11:00,
2013-10-10 15:12:00,87.2,76.2,29.94,NNE,30,2.0,6.0,70,0.00,,FEW,0.00,686.00,VWS V14.01,2013-10-10 19:12:00,
2013-10-10 15:14:00,87.1,76.1,29.94,NE,56,4.0,6.0,70,0.00,,FEW,0.00,684.00,VWS V14.01,2013-10-10 19:14:00,
2013-10-10 15:15:00,87.0,76.0,29.94,NE,45,6.0,6.0,70,0.00,,FEW,0.00,684.00,VWS V14.01,2013-10-10 19:15:00,
2013-10-10 15:16:00,87.0,76.0,29.94,NE,38,5.0,6.0,70,0.00,,FEW,0.00,682.00,VWS V14.01,2013-10-10 19:16:00,
2013-10-10 15:17:00,86.8,76.3,29.94,NNE,32,4.0,6.0,71,0.00,,FEW,0.00,679.00,VWS V14.01,2013-10-10 19:17:00,
2013-10-10 15:20:00,86.9,76.4,29.93,NE,44,2.0,7.0,71,0.00,,FEW,0.00,671.00,VWS V14.01,2013-10-10 19:20:00,
2013-10-10 15:21:00,87.1,76.6,29.93,NE,48,1.0,7.0,71,0.00,,FEW,0.00,668.00,VWS V14.01,2013-10-10 19:21:00,
2013-10-10 15:22:00,87.3,76.3,29.93,ENE,57,2.0,7.0,70,0.00,,FEW,0.00,664.00,VWS V14.01,2013-10-10 19:22:00,
2013-10-10 15:25:00,87.4,76.4,29.93,NE,38,2.0,4.0,70,0.00,,FEW,0.00,659.00,VWS V14.01,2013-10-10 19:25:00,
2013-10-10 15:26:00,87.5,76.5,29.93,NE,49,0.0,4.0,70,0.00,,FEW,0.00,661.00,VWS V14.01,2013-10-10 19:26:00,
2013-10-10 15:27:00,87.6,76.6,29.93,ENE,65,1.0,5.0,70,0.00,,FEW,0.00,656.00,VWS V14.01,2013-10-10 19:27:00,
2013-10-10 15:30:00,87.8,76.4,29.93,NNE,17,3.0,8.0,69,0.00,,FEW,0.00,647.00,VWS V14.01,2013-10-10 19:30:00,
2013-10-10 15:31:00,87.7,76.3,29.93,NNE,26,2.0,8.0,69,0.00,,FEW,0.00,645.00,VWS V14.01,2013-10-10 19:31:00,
2013-10-10 15:32:00,87.6,76.2,29.93,NNE,29,1.0,8.0,69,0.00,,FEW,0.00,643.00,VWS V14.01,2013-10-10 19:32:00,
2013-10-10 15:35:00,88.0,77.0,29.92,NE,43,1.0,3.0,70,0.00,,FEW,0.00,638.00,VWS V14.01,2013-10-10 19:35:00,
2013-10-10 15:36:00,88.1,76.7,29.92,NNE,30,3.0,7.0,69,0.00,,FEW,0.00,633.00,VWS V14.01,2013-10-10 19:36:00,
2013-10-10 15:37:00,88.0,76.6,29.92,NE,41,3.0,7.0,69,0.00,,FEW,0.00,633.00,VWS V14.01,2013-10-10 19:37:00,
2013-10-10 15:40:00,87.6,76.2,29.92,NNE,24,3.0,7.0,69,0.00,,FEW,0.00,626.00,VWS V14.01,2013-10-10 19:40:00,
2013-10-10 15:41:00,87.5,76.1,29.92,NNE,15,2.0,7.0,69,0.00,,FEW,0.00,619.00,VWS V14.01,2013-10-10 19:41:00,
2013-10-10 15:42:00,87.5,76.5,29.92,NNE,23,4.0,7.0,70,0.00,,FEW,0.00,619.00,VWS V14.01,2013-10-10 19:42:00,
2013-10-10 15:43:00,87.7,76.3,29.92,NE,54,2.0,7.0,69,0.00,,FEW,0.00,619.00,VWS V14.01,2013-10-10 19:43:00,
2013-10-10 15:45:00,87.7,76.7,29.92,NE,44,1.0,4.0,70,0.00,,FEW,0.00,606.00,VWS V14.01,2013-10-10 19:45:00,
2013-10-10 15:46:00,87.7,76.7,29.92,NE,44,1.0,4.0,70,0.00,,FEW,0.00,606.00,VWS V14.01,2013-10-10 19:46:00,
2013-10-10 15:47:00,87.6,76.2,29.92,NE,49,2.0,4.0,69,0.00,,FEW,0.00,606.00,VWS V14.01,2013-10-10 19:47:00,
2013-10-10 15:48:00,87.4,76.4,29.92,East,88,2.0,5.0,70,0.00,,FEW,0.00,606.00,VWS V14.01,2013-10-10 19:48:00,
2013-10-10 15:50:00,87.4,76.4,29.92,NE,38,0.0,5.0,70,0.00,,FEW,0.00,596.00,VWS V14.01,2013-10-10 19:50:00,
2013-10-10 15:52:00,87.5,76.5,29.92,North,360,3.0,5.0,70,0.00,,FEW,0.00,591.00,VWS V14.01,2013-10-10 19:52:00,
2013-10-10 15:53:00,87.4,76.0,29.92,NE,37,2.0,6.0,69,0.00,,FEW,0.00,589.00,VWS V14.01,2013-10-10 19:53:00,
2013-10-10 15:55:00,87.3,76.3,29.92,NNE,30,4.0,6.0,70,0.00,,FEW,0.00,584.00,VWS V14.01,2013-10-10 19:55:00,
2013-10-10 15:57:00,87.5,76.1,29.92,NNE,21,4.0,6.0,69,0.00,,FEW,0.00,580.00,VWS V14.01,2013-10-10 19:57:00,
2013-10-10 15:58:00,87.4,76.4,29.92,NE,36,0.0,6.0,70,0.00,,FEW,0.00,575.00,VWS V14.01,2013-10-10 19:58:00,
2013-10-10 16:00:00,87.3,76.3,29.92,NE,51,2.0,6.0,70,0.00,,FEW,0.00,568.00,VWS V14.01,2013-10-10 20:00:00,
2013-10-10 16:02:00,87.4,76.4,29.92,NE,52,4.0,6.0,70,0.00,,FEW,0.00,566.00,VWS V14.01,2013-10-10 20:02:00,
2013-10-10 16:03:00,87.3,76.3,29.92,NE,51,4.0,6.0,70,0.00,,FEW,0.00,545.00,VWS V14.01,2013-10-10 20:03:00,
2013-10-10 16:05:00,87.1,76.1,29.92,ENE,69,2.0,5.0,70,0.00,,FEW,0.00,555.00,VWS V14.01,2013-10-10 20:05:00,
2013-10-10 16:07:00,87.2,76.2,29.92,ENE,61,0.0,5.0,70,0.00,,FEW,0.00,547.00,VWS V14.01,2013-10-10 20:07:00,
2013-10-10 16:08:00,87.2,76.2,29.92,NE,43,2.0,5.0,70,0.00,,FEW,0.00,547.00,VWS V14.01,2013-10-10 20:08:00,
2013-10-10 16:09:00,87.3,76.3,29.92,East,84,3.0,5.0,70,0.00,,FEW,0.00,547.00,VWS V14.01,2013-10-10 20:09:00,
2013-10-10 16:10:00,87.5,76.5,29.92,NE,42,2.0,6.0,70,0.00,,FEW,0.00,541.00,VWS V14.01,2013-10-10 20:10:00,
2013-10-10 16:12:00,87.4,76.4,29.92,NE,44,2.0,6.0,70,0.00,,FEW,0.00,536.00,VWS V14.01,2013-10-10 20:12:00,
2013-10-10 16:13:00,87.2,76.2,29.92,NNE,31,2.0,6.0,70,0.00,,FEW,0.00,536.00,VWS V14.01,2013-10-10 20:13:00,
2013-10-10 16:14:00,87.2,76.2,29.92,NNE,22,2.0,6.0,70,0.00,,FEW,0.00,536.00,VWS V14.01,2013-10-10 20:14:00,
2013-10-10 16:16:00,87.5,76.5,29.92,North,360,4.0,4.0,70,0.00,,FEW,0.00,526.00,VWS V14.01,2013-10-10 20:16:00,
2013-10-10 16:17:00,87.3,75.9,29.92,NE,34,4.0,5.0,69,0.00,,FEW,0.00,524.00,VWS V14.01,2013-10-10 20:17:00,
2013-10-10 16:18:00,87.2,75.8,29.91,NE,40,3.0,5.0,69,0.00,,FEW,0.00,522.00,VWS V14.01,2013-10-10 20:18:00,
2013-10-10 16:19:00,87.1,75.7,29.91,ENE,57,2.0,5.0,69,0.00,,FEW,0.00,520.00,VWS V14.01,2013-10-10 20:19:00,
2013-10-10 16:21:00,87.3,76.3,29.91,NE,37,5.0,5.0,70,0.00,,FEW,0.00,512.00,VWS V14.01,2013-10-10 20:21:00,
2013-10-10 16:23:00,87.4,76.4,29.91,NNE,32,4.0,5.0,70,0.00,,FEW,0.00,508.00,VWS V14.01,2013-10-10 20:23:00,
2013-10-10 16:24:00,87.4,76.0,29.91,NNE,22,4.0,4.0,69,0.00,,FEW,0.00,506.00,VWS V14.01,2013-10-10 20:24:00,
2013-10-10 16:25:00,87.2,75.8,29.91,NNE,30,5.0,5.0,69,0.00,,FEW,0.00,499.00,VWS V14.01,2013-10-10 20:25:00,
2013-10-10 16:26:00,87.1,76.1,29.91,NE,39,3.0,5.0,70,0.00,,FEW,0.00,499.00,VWS V14.01,2013-10-10 20:26:00,
2013-10-10 16:28:00,86.8,75.8,29.91,NE,38,2.0,5.0,70,0.00,,FEW,0.00,497.00,VWS V14.01,2013-10-10 20:28:00,
2013-10-10 16:29:00,86.6,76.1,29.91,ENE,63,3.0,6.0,71,0.00,,FEW,0.00,490.00,VWS V14.01,2013-10-10 20:29:00,
2013-10-10 16:31:00,86.8,76.3,29.91,NE,51,2.0,6.0,71,0.00,,FEW,0.00,482.00,VWS V14.01,2013-10-10 20:31:00,
2013-10-10 16:32:00,86.8,76.3,29.91,ENE,69,4.0,6.0,71,0.00,,FEW,0.00,482.00,VWS V14.01,2013-10-10 20:32:00,
2013-10-10 16:33:00,87.0,76.5,29.92,NE,49,1.0,6.0,71,0.00,,FEW,0.00,482.00,VWS V14.01,2013-10-10 20:33:00,
2013-10-10 16:34:00,87.0,76.0,29.92,NE,55,2.0,2.0,70,0.00,,FEW,0.00,403.00,VWS V14.01,2013-10-10 20:34:00,
2013-10-10 16:36:00,87.1,76.1,29.92,ENE,58,3.0,6.0,70,0.00,,FEW,0.00,496.00,VWS V14.01,2013-10-10 20:36:00,
2013-10-10 16:37:00,87.1,76.1,29.92,NE,42,3.0,6.0,70,0.00,,FEW,0.00,510.00,VWS V14.01,2013-10-10 20:37:00,
2013-10-10 16:38:00,87.1,76.1,29.92,NNE,24,5.0,6.0,70,0.00,,FEW,0.00,510.00,VWS V14.01,2013-10-10 20:38:00,
2013-10-10 16:39:00,86.9,75.9,29.92,NE,50,2.0,6.0,70,0.00,,FEW,0.00,236.00,VWS V14.01,2013-10-10 20:39:00,
2013-10-10 16:41:00,86.8,76.7,29.92,NE,55,3.0,6.0,72,0.00,,FEW,0.00,236.00,VWS V14.01,2013-10-10 20:41:00,
2013-10-10 16:42:00,86.8,76.7,29.92,NE,36,4.0,6.0,72,0.00,,FEW,0.00,236.00,VWS V14.01,2013-10-10 20:42:00,
2013-10-10 16:43:00,86.8,76.7,29.92,East,84,1.0,6.0,72,0.00,,FEW,0.00,497.00,VWS V14.01,2013-10-10 20:43:00,
2013-10-10 16:44:00,87.0,77.3,29.92,East,82,1.0,2.0,73,0.00,,FEW,0.00,475.00,VWS V14.01,2013-10-10 20:44:00,
2013-10-10 16:46:00,87.2,76.7,29.92,ENE,61,4.0,6.0,71,0.00,,FEW,0.00,464.00,VWS V14.01,2013-10-10 20:46:00,
2013-10-10 16:47:00,87.1,76.6,29.92,ENE,64,1.0,6.0,71,0.00,,FEW,0.00,464.00,VWS V14.01,2013-10-10 20:47:00,
2013-10-10 16:49:00,86.8,76.7,29.92,East,86,0.0,6.0,72,0.00,,FEW,0.00,448.00,VWS V14.01,2013-10-10 20:49:00,
2013-10-10 16:51:00,86.9,76.8,29.92,NE,53,3.0,6.0,72,0.00,,FEW,0.00,432.00,VWS V14.01,2013-10-10 20:51:00,
2013-10-10 16:52:00,86.9,76.8,29.92,NE,53,1.0,6.0,72,0.00,,FEW,0.00,432.00,VWS V14.01,2013-10-10 20:52:00,
2013-10-10 16:54:00,86.8,76.7,29.92,NE,39,5.0,6.0,72,0.00,,FEW,0.00,420.00,VWS V14.01,2013-10-10 20:54:00,
2013-10-10 16:56:00,86.6,76.5,29.92,NE,41,1.0,5.0,72,0.00,,FEW,0.00,417.00,VWS V14.01,2013-10-10 20:56:00,
2013-10-10 16:57:00,86.6,76.5,29.92,NE,40,1.0,5.0,72,0.00,,FEW,0.00,417.00,VWS V14.01,2013-10-10 20:57:00,
2013-10-10 16:59:00,86.5,76.4,29.92,NE,38,3.0,5.0,72,0.00,,FEW,0.00,135.00,VWS V14.01,2013-10-10 20:59:00,
2013-10-10 17:00:00,86.3,76.2,29.92,NE,40,2.0,5.0,72,0.00,,FEW,0.00,128.00,VWS V14.01,2013-10-10 21:00:00,
2013-10-10 17:02:00,86.0,76.3,29.92,NNE,24,3.0,5.0,73,0.00,,FEW,0.00,90.00,VWS V14.01,2013-10-10 21:02:00,
2013-10-10 17:04:00,85.8,76.2,29.92,NE,46,2.0,5.0,73,0.00,,FEW,0.00,390.00,VWS V14.01,2013-10-10 21:04:00,
2013-10-10 17:05:00,85.9,76.2,29.92,NE,42,1.0,3.0,73,0.00,,FEW,0.00,380.00,VWS V14.01,2013-10-10 21:05:00,
2013-10-10 17:07:00,86.0,76.3,29.92,ENE,58,1.0,5.0,73,0.00,,FEW,0.00,371.00,VWS V14.01,2013-10-10 21:07:00,
2013-10-10 17:08:00,86.1,76.0,29.92,NE,52,1.0,5.0,72,0.00,,FEW,0.00,371.00,VWS V14.01,2013-10-10 21:08:00,
2013-10-10 17:09:00,86.1,76.0,29.92,NE,52,0.0,5.0,72,0.00,,FEW,0.00,371.00,VWS V14.01,2013-10-10 21:09:00,
2013-10-10 17:10:00,86.3,76.2,29.92,ENE,66,0.0,5.0,72,0.00,,FEW,0.00,371.00,VWS V14.01,2013-10-10 21:10:00,
2013-10-10 17:12:00,86.3,76.2,29.92,ENE,66,1.0,5.0,72,0.00,,FEW,0.00,70.00,VWS V14.01,2013-10-10 21:12:00,
2013-10-10 17:13:00,86.3,76.2,29.92,ENE,66,0.0,5.0,72,0.00,,FEW,0.00,70.00,VWS V14.01,2013-10-10 21:13:00,
2013-10-10 17:14:00,86.1,76.0,29.92,NE,42,4.0,4.0,72,0.00,,FEW,0.00,70.00,VWS V14.01,2013-10-10 21:14:00,
2013-10-10 17:15:00,85.9,75.8,29.92,East,82,3.0,4.0,72,0.00,,FEW,0.00,338.00,VWS V14.01,2013-10-10 21:15:00,
2013-10-10 17:17:00,85.7,76.1,29.92,ENE,76,1.0,4.0,73,0.00,,FEW,0.00,338.00,VWS V14.01,2013-10-10 21:17:00,
2013-10-10 17:18:00,85.7,76.1,29.92,NE,53,2.0,4.0,73,0.00,,FEW,0.00,47.00,VWS V14.01,2013-10-10 21:18:00,
2013-10-10 17:19:00,85.7,76.1,29.92,NNE,24,1.0,4.0,73,0.00,,FEW,0.00,44.00,VWS V14.01,2013-10-10 21:19:00,
2013-10-10 17:20:00,85.7,76.1,29.92,NNE,30,3.0,4.0,73,0.00,,FEW,0.00,44.00,VWS V14.01,2013-10-10 21:20:00,
2013-10-10 17:23:00,85.7,75.6,29.92,ENE,78,1.0,6.0,72,0.00,,FEW,0.00,46.00,VWS V14.01,2013-10-10 21:23:00,
2013-10-10 17:24:00,85.7,75.6,29.92,East,80,0.0,1.0,72,0.00,,FEW,0.00,44.00,VWS V14.01,2013-10-10 21:24:00,
2013-10-10 17:25:00,85.7,75.6,29.92,East,80,0.0,1.0,72,0.00,,FEW,0.00,42.00,VWS V14.01,2013-10-10 21:25:00,
2013-10-10 17:28:00,85.7,75.6,29.92,NE,49,3.0,5.0,72,0.00,,FEW,0.00,37.00,VWS V14.01,2013-10-10 21:28:00,
2013-10-10 17:29:00,85.7,75.6,29.92,NE,45,0.0,5.0,72,0.00,,FEW,0.00,39.00,VWS V14.01,2013-10-10 21:29:00,
2013-10-10 17:30:00,85.7,76.1,29.92,NE,45,1.0,5.0,73,0.00,,FEW,0.00,39.00,VWS V14.01,2013-10-10 21:30:00,
2013-10-10 17:34:00,85.7,76.1,29.92,East,94,0.0,7.0,73,0.00,,FEW,0.00,44.00,VWS V14.01,2013-10-10 21:34:00,
2013-10-10 17:35:00,85.7,76.5,29.92,East,95,0.0,1.0,74,0.00,,FEW,0.00,40.00,VWS V14.01,2013-10-10 21:35:00,
2013-10-10 17:39:00,85.8,77.4,29.92,ESE,106,0.0,3.0,76,0.00,,FEW,0.00,46.00,VWS V14.01,2013-10-10 21:39:00,
2013-10-10 17:40:00,85.8,77.4,29.92,East,82,2.0,5.0,76,0.00,,FEW,0.00,44.00,VWS V14.01,2013-10-10 21:40:00,
2013-10-10 17:41:00,85.7,77.3,29.92,ENE,76,2.0,5.0,76,0.00,,FEW,0.00,44.00,VWS V14.01,2013-10-10 21:41:00,
2013-10-10 17:44:00,85.5,77.1,29.92,ESE,120,1.0,1.0,76,0.00,,FEW,0.00,40.00,VWS V14.01,2013-10-10 21:44:00,
2013-10-10 17:45:00,85.5,77.1,29.92,ENE,61,0.0,1.0,76,0.00,,FEW,0.00,37.00,VWS V14.01,2013-10-10 21:45:00,
2013-10-10 17:46:00,85.4,77.0,29.92,ENE,70,1.0,2.0,76,0.00,,FEW,0.00,37.00,VWS V14.01,2013-10-10 21:46:00,
2013-10-10 17:49:00,85.3,77.3,29.92,ESE,103,1.0,5.0,77,0.00,,FEW,0.00,32.00,VWS V14.01,2013-10-10 21:49:00,
2013-10-10 17:50:00,85.3,77.3,29.92,NE,53,0.0,5.0,77,0.00,,FEW,0.00,32.00,VWS V14.01,2013-10-10 21:50:00,
2013-10-10 17:51:00,85.2,77.2,29.92,SE,141,1.0,6.0,77,0.00,,FEW,0.00,32.00,VWS V14.01,2013-10-10 21:51:00,
2013-10-10 17:52:00,85.2,77.2,29.92,ENE,78,1.0,6.0,77,0.00,,FEW,0.00,32.00,VWS V14.01,2013-10-10 21:52:00,
2013-10-10 17:54:00,85.0,77.0,29.92,NE,47,3.0,3.0,77,0.00,,FEW,0.00,30.00,VWS V14.01,2013-10-10 21:54:00,
2013-10-10 17:55:00,85.0,77.0,29.92,ENE,75,3.0,4.0,77,0.00,,FEW,0.00,30.00,VWS V14.01,2013-10-10 21:55:00,
2013-10-10 17:56:00,84.9,76.9,29.92,East,91,0.0,5.0,77,0.00,,FEW,0.00,28.00,VWS V14.01,2013-10-10 21:56:00,
2013-10-10 17:57:00,84.8,76.8,29.92,East,90,1.0,5.0,77,0.00,,FEW,0.00,26.00,VWS V14.01,2013-10-10 21:57:00,
2013-10-10 17:59:00,84.7,76.7,29.92,ESE,102,1.0,5.0,77,0.00,,FEW,0.00,28.00,VWS V14.01,2013-10-10 21:59:00,
2013-10-10 18:00:00,84.7,76.7,29.92,ESE,119,2.0,5.0,77,0.00,,FEW,0.00,28.00,VWS V14.01,2013-10-10 22:00:00,
2013-10-10 18:01:00,84.6,76.6,29.92,NE,49,2.0,5.0,77,0.00,,FEW,0.00,26.00,VWS V14.01,2013-10-10 22:01:00,
2013-10-10 18:02:00,84.5,76.5,29.92,East,93,2.0,5.0,77,0.00,,FEW,0.00,28.00,VWS V14.01,2013-10-10 22:02:00,
2013-10-10 18:04:00,84.4,76.4,29.91,East,80,1.0,2.0,77,0.00,,FEW,0.00,28.00,VWS V14.01,2013-10-10 22:04:00,
2013-10-10 18:05:00,84.3,76.3,29.91,East,80,0.0,2.0,77,0.00,,FEW,0.00,30.00,VWS V14.01,2013-10-10 22:05:00,
2013-10-10 18:06:00,84.3,76.3,29.91,ENE,65,3.0,3.0,77,0.00,,FEW,0.00,30.00,VWS V14.01,2013-10-10 22:06:00,
2013-10-10 18:07:00,84.3,76.3,29.91,East,79,0.0,3.0,77,0.00,,FEW,0.00,37.00,VWS V14.01,2013-10-10 22:07:00,
2013-10-10 18:10:00,84.2,76.6,29.91,ENE,61,1.0,3.0,78,0.00,,FEW,0.00,40.00,VWS V14.01,2013-10-10 22:10:00,
2013-10-10 18:11:00,84.2,76.6,29.91,ENE,60,0.0,3.0,78,0.00,,FEW,0.00,40.00,VWS V14.01,2013-10-10 22:11:00,
2013-10-10 18:12:00,84.2,76.6,29.91,ENE,60,0.0,3.0,78,0.00,,FEW,0.00,40.00,VWS V14.01,2013-10-10 22:12:00,
2013-10-10 18:15:00,84.2,76.6,29.91,SSE,156,1.0,3.0,78,0.00,,FEW,0.00,40.00,VWS V14.01,2013-10-10 22:15:00,
2013-10-10 18:16:00,84.2,76.6,29.91,ESE,107,1.0,3.0,78,0.00,,FEW,0.00,40.00,VWS V14.01,2013-10-10 22:16:00,
2013-10-10 18:17:00,84.1,76.5,29.91,ENE,78,0.0,3.0,78,0.00,,FEW,0.00,40.00,VWS V14.01,2013-10-10 22:17:00,
2013-10-10 18:20:00,84.0,76.4,29.92,East,87,0.0,3.0,78,0.00,,FEW,0.00,42.00,VWS V14.01,2013-10-10 22:20:00,
2013-10-10 18:21:00,84.0,76.4,29.92,NE,50,3.0,3.0,78,0.00,,FEW,0.00,42.00,VWS V14.01,2013-10-10 22:21:00,
2013-10-10 18:23:00,84.0,76.4,29.92,ENE,59,4.0,4.0,78,0.00,,FEW,0.00,44.00,VWS V14.01,2013-10-10 22:23:00,
2013-10-10 18:25:00,84.0,76.4,29.92,ESE,105,2.0,5.0,78,0.00,,FEW,0.00,44.00,VWS V14.01,2013-10-10 22:25:00,
2013-10-10 18:26:00,83.9,76.3,29.92,East,92,0.0,5.0,78,0.00,,FEW,0.00,44.00,VWS V14.01,2013-10-10 22:26:00,
2013-10-10 18:28:00,83.9,76.7,29.92,East,86,1.0,5.0,79,0.00,,FEW,0.00,40.00,VWS V14.01,2013-10-10 22:28:00,
2013-10-10 18:29:00,83.9,76.7,29.92,NE,44,2.0,6.0,79,0.00,,FEW,0.00,40.00,VWS V14.01,2013-10-10 22:29:00,
2013-10-10 18:31:00,83.8,76.2,29.92,ENE,77,3.0,7.0,78,0.00,,FEW,0.00,42.00,VWS V14.01,2013-10-10 22:31:00,
2013-10-10 18:33:00,83.7,76.1,29.92,ENE,63,1.0,7.0,78,0.00,,FEW,0.00,40.00,VWS V14.01,2013-10-10 22:33:00,
2013-10-10 18:34:00,83.6,76.4,29.92,NE,55,0.0,7.0,79,0.00,,FEW,0.00,44.00,VWS V14.01,2013-10-10 22:34:00,
2013-10-10 18:35:00,83.6,76.4,29.92,ENE,70,3.0,7.0,79,0.00,,FEW,0.00,46.00,VWS V14.01,2013-10-10 22:35:00,
2013-10-10 18:36:00,83.6,76.4,29.92,ENE,61,2.0,7.0,79,0.00,,FEW,0.00,46.00,VWS V14.01,2013-10-10 22:36:00,
2013-10-10 18:38:00,83.5,76.3,29.92,East,92,0.0,7.0,79,0.00,,FEW,0.00,51.00,VWS V14.01,2013-10-10 22:38:00,
2013-10-10 18:39:00,83.5,76.3,29.92,ENE,62,1.0,7.0,79,0.00,,FEW,0.00,51.00,VWS V14.01,2013-10-10 22:39:00,
2013-10-10 18:40:00,83.4,76.2,29.92,ENE,59,3.0,7.0,79,0.00,,FEW,0.00,54.00,VWS V14.01,2013-10-10 22:40:00,
2013-10-10 18:41:00,83.4,76.2,29.92,East,97,2.0,7.0,79,0.00,,FEW,0.00,54.00,VWS V14.01,2013-10-10 22:41:00,
2013-10-10 18:43:00,83.3,76.1,29.92,East,96,0.0,7.0,79,0.00,,FEW,0.00,54.00,VWS V14.01,2013-10-10 22:43:00,
2013-10-10 18:44:00,83.3,76.1,29.92,ENE,63,1.0,2.0,79,0.00,,FEW,0.00,54.00,VWS V14.01,2013-10-10 22:44:00,
2013-10-10 18:46:00,83.3,76.1,29.92,South,175,1.0,2.0,79,0.00,,FEW,0.00,54.00,VWS V14.01,2013-10-10 22:46:00,
2013-10-10 18:47:00,83.3,76.1,29.92,ESE,102,1.0,4.0,79,0.00,,FEW,0.00,53.00,VWS V14.01,2013-10-10 22:47:00,
2013-10-10 18:49:00,83.2,76.0,29.92,ENE,68,1.0,4.0,79,0.00,,FEW,0.00,46.00,VWS V14.01,2013-10-10 22:49:00,
2013-10-10 18:51:00,83.2,76.0,29.92,ESE,105,2.0,4.0,79,0.00,,FEW,0.00,42.00,VWS V14.01,2013-10-10 22:51:00,
2013-10-10 18:52:00,83.2,76.0,29.92,ENE,68,0.0,4.0,79,0.00,,FEW,0.00,37.00,VWS V14.01,2013-10-10 22:52:00,
2013-10-10 18:54:00,83.2,76.0,29.92,East,86,7.0,7.0,79,0.00,,FEW,0.00,33.00,VWS V14.01,2013-10-10 22:54:00,
2013-10-10 18:55:00,83.1,75.9,29.92,ENE,73,1.0,7.0,79,0.00,,FEW,0.00,32.00,VWS V14.01,2013-10-10 22:55:00,
2013-10-10 18:56:00,83.1,75.9,29.92,NE,35,2.0,7.0,79,0.00,,FEW,0.00,30.00,VWS V14.01,2013-10-10 22:56:00,
2013-10-10 18:57:00,83.0,75.8,29.92,ENE,60,1.0,7.0,79,0.00,,FEW,0.00,26.00,VWS V14.01,2013-10-10 22:57:00,
2013-10-10 18:59:00,82.9,75.7,29.92,ENE,74,3.0,7.0,79,0.00,,FEW,0.00,21.00,VWS V14.01,2013-10-10 22:59:00,
2013-10-10 19:00:00,82.9,75.7,29.92,ENE,58,1.0,7.0,79,0.00,,FEW,0.00,18.00,VWS V14.01,2013-10-10 23:00:00,
2013-10-10 19:01:00,82.9,75.7,29.92,NE,50,1.0,7.0,79,0.00,,FEW,0.00,18.00,VWS V14.01,2013-10-10 23:01:00,
2013-10-10 19:02:00,82.9,75.7,29.92,NE,50,1.0,7.0,79,0.00,,FEW,0.00,16.00,VWS V14.01,2013-10-10 23:02:00,
2013-10-10 19:05:00,82.9,75.7,29.93,ENE,71,1.0,4.0,79,0.00,,FEW,0.00,14.00,VWS V14.01,2013-10-10 23:05:00,
2013-10-10 19:06:00,82.8,75.6,29.93,ENE,71,0.0,4.0,79,0.00,,FEW,0.00,14.00,VWS V14.01,2013-10-10 23:06:00,
2013-10-10 19:07:00,82.9,75.7,29.93,ENE,71,1.0,4.0,79,0.00,,FEW,0.00,14.00,VWS V14.01,2013-10-10 23:07:00,
2013-10-10 19:10:00,82.8,75.6,29.93,ENE,77,4.0,5.0,79,0.00,,FEW,0.00,5.00,VWS V14.01,2013-10-10 23:10:00,
2013-10-10 19:11:00,82.8,75.6,29.93,ENE,77,4.0,5.0,79,0.00,,FEW,0.00,5.00,VWS V14.01,2013-10-10 23:11:00,
2013-10-10 19:12:00,82.8,75.6,29.93,ESE,116,1.0,5.0,79,0.00,,FEW,0.00,0.00,VWS V14.01,2013-10-10 23:12:00,
2013-10-10 19:13:00,82.7,75.5,29.93,East,82,3.0,7.0,79,0.00,,FEW,0.00,0.00,VWS V14.01,2013-10-10 23:13:00,
2013-10-10 19:15:00,82.7,75.5,29.93,ENE,61,1.0,3.0,79,0.00,,FEW,0.00,0.00,VWS V14.01,2013-10-10 23:15:00,
2013-10-10 19:16:00,82.7,75.5,29.93,ENE,61,1.0,3.0,79,0.00,,FEW,0.00,0.00,VWS V14.01,2013-10-10 23:16:00,
2013-10-10 19:17:00,82.7,75.5,29.93,NE,56,0.0,4.0,79,0.00,,FEW,0.00,0.00,VWS V14.01,2013-10-10 23:17:00,
2013-10-10 19:18:00,82.7,75.5,29.93,ESE,109,2.0,4.0,79,0.00,,FEW,0.00,0.00,VWS V14.01,2013-10-10 23:18:00,
2013-10-10 19:21:00,82.7,75.9,29.93,NE,52,0.0,4.0,80,0.00,,FEW,0.00,0.00,VWS V14.01,2013-10-10 23:21:00,
2013-10-10 19:22:00,82.7,75.9,29.93,NE,52,0.0,4.0,80,0.00,,FEW,0.00,0.00,VWS V14.01,2013-10-10 23:22:00,
2013-10-10 19:23:00,82.7,75.9,29.93,NE,52,0.0,4.0,80,0.00,,FEW,0.00,0.00,VWS V14.01,2013-10-10 23:23:00,
2013-10-10 19:26:00,82.7,75.9,29.93,ENE,60,1.0,2.0,80,0.00,,FEW,0.00,0.00,VWS V14.01,2013-10-10 23:26:00,
2013-10-10 19:27:00,82.7,75.9,29.93,North,355,4.0,4.0,80,0.00,,FEW,0.00,0.00,VWS V14.01,2013-10-10 23:27:00,
2013-10-10 19:28:00,82.7,75.9,29.93,ENE,59,2.0,4.0,80,0.00,,FEW,0.00,0.00,VWS V14.01,2013-10-10 23:28:00,
2013-10-10 19:32:00,82.5,75.7,29.93,NE,34,1.0,4.0,80,0.00,,FEW,0.00,0.00,VWS V14.01,2013-10-10 23:32:00,
2013-10-10 19:33:00,82.5,75.7,29.93,North,350,3.0,4.0,80,0.00,,FEW,0.00,0.00,VWS V14.01,2013-10-10 23:33:00,
2013-10-10 19:34:00,82.5,75.7,29.93,NE,39,2.0,5.0,80,0.01,,FEW,0.01,0.00,VWS V14.01,2013-10-10 23:34:00,
2013-10-10 19:37:00,82.3,75.9,29.93,North,5,2.0,5.0,81,0.01,,FEW,0.01,0.00,VWS V14.01,2013-10-10 23:37:00,
2013-10-10 19:38:00,82.3,75.9,29.93,North,355,1.0,5.0,81,0.01,,FEW,0.01,0.00,VWS V14.01,2013-10-10 23:38:00,
2013-10-10 19:39:00,82.3,75.9,29.93,NE,40,0.0,5.0,81,0.01,,FEW,0.01,0.00,VWS V14.01,2013-10-10 23:39:00,
2013-10-10 19:42:00,82.2,75.8,29.93,NE,42,0.0,5.0,81,0.01,,FEW,0.01,0.00,VWS V14.01,2013-10-10 23:42:00,
2013-10-10 19:43:00,82.2,75.8,29.93,NE,54,1.0,5.0,81,0.01,,FEW,0.01,0.00,VWS V14.01,2013-10-10 23:43:00,
2013-10-10 19:44:00,82.1,75.7,29.93,East,98,0.0,0.0,81,0.01,,FEW,0.01,0.00,VWS V14.01,2013-10-10 23:44:00,
2013-10-10 19:48:00,82.0,76.0,29.93,NNE,27,3.0,3.0,82,0.01,,FEW,0.01,0.00,VWS V14.01,2013-10-10 23:48:00,
2013-10-10 19:49:00,81.9,75.9,29.94,NW,321,7.0,7.0,82,0.01,,FEW,0.01,0.00,VWS V14.01,2013-10-10 23:49:00,
2013-10-10 19:50:00,81.8,76.1,29.94,NW,311,7.0,10.0,83,0.02,,FEW,0.02,0.00,VWS V14.01,2013-10-10 23:50:00,
2013-10-10 19:53:00,81.5,75.8,29.94,NNW,337,2.0,10.0,83,0.02,,FEW,0.02,0.00,VWS V14.01,2013-10-10 23:53:00,
2013-10-10 19:54:00,81.3,75.7,29.94,NNW,332,4.0,5.0,83,0.03,,FEW,0.03,0.00,VWS V14.01,2013-10-10 23:54:00,
2013-10-10 19:56:00,81.2,75.9,29.94,NNW,335,2.0,5.0,84,0.04,,FEW,0.04,0.00,VWS V14.01,2013-10-10 23:56:00,
2013-10-10 19:58:00,81.0,75.7,29.94,WNW,303,1.0,5.0,84,0.04,,FEW,0.04,0.00,VWS V14.01,2013-10-10 23:58:00,
2013-10-10 19:59:00,81.0,75.7,29.94,NNW,338,1.0,5.0,84,0.05,,FEW,0.05,0.00,VWS V14.01,2013-10-10 23:59:00,
2013-10-10 20:00:00,80.9,75.6,29.94,NNW,342,5.0,5.0,84,0.06,,FEW,0.06,0.00,VWS V14.01,2013-10-11 00:00:00,
2013-10-10 20:01:00,80.7,75.8,29.94,NNW,338,4.0,6.0,85,0.06,,FEW,0.06,0.00,VWS V14.01,2013-10-11 00:01:00,
2013-10-10 20:03:00,80.5,75.6,29.94,NW,321,2.0,6.0,85,0.07,,FEW,0.07,0.00,VWS V14.01,2013-10-11 00:03:00,
2013-10-10 20:04:00,80.5,75.6,29.94,NW,322,2.0,6.0,85,0.07,,FEW,0.07,0.00,VWS V14.01,2013-10-11 00:04:00,
2013-10-10 20:05:00,80.4,75.5,29.94,NW,322,0.0,2.0,85,0.07,,FEW,0.07,0.00,VWS V14.01,2013-10-11 00:05:00,
2013-10-10 20:06:00,80.3,75.4,29.94,NW,322,0.0,2.0,85,0.07,,FEW,0.07,0.00,VWS V14.01,2013-10-11 00:06:00,
2013-10-10 20:08:00,80.3,75.7,29.94,NW,322,0.0,2.0,86,0.08,,FEW,0.08,0.00,VWS V14.01,2013-10-11 00:08:00,
2013-10-10 20:09:00,80.2,75.6,29.94,NW,322,0.0,2.0,86,0.08,,FEW,0.08,0.00,VWS V14.01,2013-10-11 00:09:00,
2013-10-10 20:10:00,80.2,75.6,29.94,NW,322,0.0,2.0,86,0.08,,FEW,0.08,0.00,VWS V14.01,2013-10-11 00:10:00,
2013-10-10 20:11:00,80.2,75.6,29.94,NW,322,0.0,2.0,86,0.08,,FEW,0.08,0.00,VWS V14.01,2013-10-11 00:11:00,
2013-10-10 20:13:00,80.2,75.6,29.94,NW,322,0.0,2.0,86,0.08,,FEW,0.08,0.00,VWS V14.01,2013-10-11 00:13:00,
2013-10-10 20:14:00,80.2,75.6,29.94,NW,322,0.0,0.0,86,0.08,,FEW,0.08,0.00,VWS V14.01,2013-10-11 00:14:00,
2013-10-10 20:15:00,80.1,75.5,29.94,NW,322,0.0,1.0,86,0.08,,FEW,0.08,0.00,VWS V14.01,2013-10-11 00:15:00,
2013-10-10 20:16:00,80.1,75.9,29.94,NW,322,0.0,1.0,87,0.08,,FEW,0.08,0.00,VWS V14.01,2013-10-11 00:16:00,
2013-10-10 20:18:00,80.1,75.9,29.94,NW,322,0.0,2.0,87,0.08,,FEW,0.08,0.00,VWS V14.01,2013-10-11 00:18:00,
2013-10-10 20:19:00,80.1,75.9,29.94,East,80,0.0,3.0,87,0.08,,FEW,0.08,0.00,VWS V14.01,2013-10-11 00:19:00,
2013-10-10 20:20:00,80.0,75.8,29.94,East,80,0.0,3.0,87,0.08,,FEW,0.08,0.00,VWS V14.01,2013-10-11 00:20:00,
2013-10-10 20:21:00,80.0,75.8,29.94,NNE,28,2.0,3.0,87,0.08,,FEW,0.08,0.00,VWS V14.01,2013-10-11 00:21:00,
2013-10-10 20:23:00,79.8,75.6,29.94,East,80,1.0,4.0,87,0.08,,FEW,0.08,0.00,VWS V14.01,2013-10-11 00:23:00,
2013-10-10 20:25:00,79.7,75.5,29.94,NE,46,0.0,3.0,87,0.08,,FEW,0.08,0.00,VWS V14.01,2013-10-11 00:25:00,
2013-10-10 20:26:00,79.5,75.3,29.94,NE,45,0.0,3.0,87,0.08,,FEW,0.08,0.00,VWS V14.01,2013-10-11 00:26:00,
2013-10-10 20:27:00,79.5,75.3,29.94,NE,45,0.0,3.0,87,0.08,,FEW,0.08,0.00,VWS V14.01,2013-10-11 00:27:00,
2013-10-10 20:28:00,79.4,75.2,29.94,NE,45,0.0,3.0,87,0.08,,FEW,0.08,0.00,VWS V14.01,2013-10-11 00:28:00,
2013-10-10 20:29:00,79.4,75.2,29.94,ENE,71,3.0,3.0,87,0.08,,FEW,0.08,0.00,VWS V14.01,2013-10-11 00:29:00,
2013-10-10 20:30:00,79.3,75.1,29.94,NE,56,0.0,3.0,87,0.08,,FEW,0.08,0.00,VWS V14.01,2013-10-11 00:30:00,
2013-10-10 20:32:00,79.2,75.0,29.94,ENE,57,1.0,3.0,87,0.08,,FEW,0.08,0.00,VWS V14.01,2013-10-11 00:32:00,
2013-10-10 20:34:00,79.2,75.0,29.95,ENE,58,0.0,3.0,87,0.08,,FEW,0.08,0.00,VWS V14.01,2013-10-11 00:34:00,
2013-10-10 20:35:00,79.2,75.0,29.95,ENE,74,1.0,6.0,87,0.07,,FEW,0.08,0.00,VWS V14.01,2013-10-11 00:35:00,
2013-10-10 20:36:00,79.2,75.0,29.95,ENE,64,1.0,6.0,87,0.07,,FEW,0.08,0.00,VWS V14.01,2013-10-11 00:36:00,
2013-10-10 20:37:00,79.1,74.9,29.95,NE,54,2.0,6.0,87,0.07,,FEW,0.08,0.00,VWS V14.01,2013-10-11 00:37:00,
2013-10-10 20:38:00,79.1,74.9,29.95,ENE,67,3.0,6.0,87,0.07,,FEW,0.08,0.00,VWS V14.01,2013-10-11 00:38:00,
2013-10-10 20:39:00,79.1,74.9,29.95,ENE,65,0.0,6.0,87,0.07,,FEW,0.08,0.00,VWS V14.01,2013-10-11 00:39:00,
2013-10-10 20:40:00,79.1,74.9,29.95,ENE,62,1.0,6.0,87,0.07,,FEW,0.08,0.00,VWS V14.01,2013-10-11 00:40:00,
2013-10-10 20:41:00,79.1,74.9,29.95,NE,55,6.0,6.0,87,0.07,,FEW,0.08,0.00,VWS V14.01,2013-10-11 00:41:00,
2013-10-10 20:42:00,79.1,74.9,29.95,ENE,65,1.0,6.0,87,0.07,,FEW,0.08,0.00,VWS V14.01,2013-10-11 00:42:00,
2013-10-10 20:43:00,79.1,74.9,29.95,ENE,61,1.0,7.0,87,0.07,,FEW,0.08,0.00,VWS V14.01,2013-10-11 00:43:00,
2013-10-10 20:44:00,79.1,74.9,29.95,NE,54,3.0,3.0,87,0.07,,FEW,0.08,0.00,VWS V14.01,2013-10-11 00:44:00,
2013-10-10 20:45:00,79.1,74.9,29.95,NE,40,0.0,3.0,87,0.07,,FEW,0.08,0.00,VWS V14.01,2013-10-11 00:45:00,
2013-10-10 20:47:00,79.1,74.9,29.95,ENE,71,2.0,3.0,87,0.07,,FEW,0.08,0.00,VWS V14.01,2013-10-11 00:47:00,
2013-10-10 20:48:00,79.1,74.9,29.96,East,81,0.0,5.0,87,0.07,,FEW,0.08,0.00,VWS V14.01,2013-10-11 00:48:00,
2013-10-10 20:49:00,79.2,75.0,29.96,ENE,61,3.0,5.0,87,0.07,,FEW,0.08,0.00,VWS V14.01,2013-10-11 00:49:00,
2013-10-10 20:50:00,79.2,75.0,29.96,ENE,68,0.0,5.0,87,0.07,,FEW,0.08,0.00,VWS V14.01,2013-10-11 00:50:00,
2013-10-10 20:53:00,79.2,75.0,29.96,NE,56,1.0,5.0,87,0.07,,FEW,0.08,0.00,VWS V14.01,2013-10-11 00:53:00,
2013-10-10 20:54:00,79.2,75.0,29.96,ENE,60,0.0,0.0,87,0.05,,FEW,0.08,0.00,VWS V14.01,2013-10-11 00:54:00,
2013-10-10 20:55:00,79.3,75.1,29.96,NE,52,1.0,3.0,87,0.05,,FEW,0.08,0.00,VWS V14.01,2013-10-11 00:55:00,
2013-10-10 20:58:00,79.3,75.1,29.96,ENE,68,1.0,3.0,87,0.05,,FEW,0.08,0.00,VWS V14.01,2013-10-11 00:58:00,
2013-10-10 20:59:00,79.3,75.1,29.96,NE,52,3.0,3.0,87,0.05,,FEW,0.08,0.00,VWS V14.01,2013-10-11 00:59:00,
2013-10-10 21:00:00,79.4,75.2,29.96,NE,51,3.0,4.0,87,0.05,,FEW,0.08,0.00,VWS V14.01,2013-10-11 01:00:00,
2013-10-10 21:01:00,79.4,75.2,29.96,NE,51,1.0,4.0,87,0.05,,FEW,0.08,0.00,VWS V14.01,2013-10-11 01:01:00,
2013-10-10 21:03:00,79.4,75.2,29.96,ENE,64,3.0,5.0,87,0.05,,FEW,0.08,0.00,VWS V14.01,2013-10-11 01:03:00,
2013-10-10 21:04:00,79.4,75.2,29.96,NE,56,0.0,3.0,87,0.01,,FEW,0.08,0.00,VWS V14.01,2013-10-11 01:04:00,
2013-10-10 21:05:00,79.4,75.2,29.96,ENE,60,2.0,6.0,87,0.01,,FEW,0.08,0.00,VWS V14.01,2013-10-11 01:05:00,
2013-10-10 21:06:00,79.4,74.8,29.96,ENE,76,2.0,6.0,86,0.01,,FEW,0.08,0.00,VWS V14.01,2013-10-11 01:06:00,
2013-10-10 21:08:00,79.5,74.9,29.96,East,89,3.0,6.0,86,0.01,,FEW,0.08,0.00,VWS V14.01,2013-10-11 01:08:00,
2013-10-10 21:09:00,79.6,75.1,29.96,NE,43,0.0,6.0,86,0.01,,FEW,0.08,0.00,VWS V14.01,2013-10-11 01:09:00,
2013-10-10 21:10:00,79.6,75.1,29.96,NE,34,1.0,6.0,86,0.01,,FEW,0.08,0.00,VWS V14.01,2013-10-11 01:10:00,
2013-10-10 21:11:00,79.6,75.1,29.96,NE,37,2.0,6.0,86,0.01,,FEW,0.08,0.00,VWS V14.01,2013-10-11 01:11:00,
2013-10-10 21:13:00,79.6,75.1,29.96,ENE,69,1.0,6.0,86,0.01,,FEW,0.08,0.00,VWS V14.01,2013-10-11 01:13:00,
2013-10-10 21:14:00,79.7,75.2,29.96,East,82,3.0,5.0,86,0.00,,FEW,0.08,0.00,VWS V14.01,2013-10-11 01:14:00,
2013-10-10 21:15:00,79.7,75.2,29.96,East,82,1.0,5.0,86,0.00,,FEW,0.08,0.00,VWS V14.01,2013-10-11 01:15:00,
2013-10-10 21:16:00,79.7,75.2,29.96,ENE,65,2.0,5.0,86,0.00,,FEW,0.08,0.00,VWS V14.01,2013-10-11 01:16:00,
2013-10-10 21:18:00,79.8,75.2,29.96,ENE,58,0.0,5.0,86,0.00,,FEW,0.08,0.00,VWS V14.01,2013-10-11 01:18:00,
2013-10-10 21:19:00,79.8,75.2,29.96,ENE,58,0.0,5.0,86,0.00,,FEW,0.08,0.00,VWS V14.01,2013-10-11 01:19:00,
2013-10-10 21:20:00,79.8,75.2,29.96,ENE,73,1.0,5.0,86,0.00,,FEW,0.08,0.00,VWS V14.01,2013-10-11 01:20:00,
2013-10-10 21:21:00,79.8,75.2,29.96,ENE,57,0.0,5.0,86,0.00,,FEW,0.08,0.00,VWS V14.01,2013-10-11 01:21:00,
2013-10-10 21:24:00,80.0,75.4,29.96,NE,41,1.0,5.0,86,0.00,,FEW,0.08,0.00,VWS V14.01,2013-10-11 01:24:00,
2013-10-10 21:25:00,80.1,75.5,29.96,NE,40,1.0,5.0,86,0.00,,FEW,0.08,0.00,VWS V14.01,2013-10-11 01:25:00,
2013-10-10 21:26:00,80.1,75.5,29.96,ENE,58,2.0,5.0,86,0.00,,FEW,0.08,0.00,VWS V14.01,2013-10-11 01:26:00,
2013-10-10 21:27:00,80.2,75.3,29.96,ENE,67,2.0,5.0,85,0.00,,FEW,0.08,0.00,VWS V14.01,2013-10-11 01:27:00,
2013-10-10 21:29:00,80.2,75.3,29.96,NE,55,3.0,5.0,85,0.00,,FEW,0.08,0.00,VWS V14.01,2013-10-11 01:29:00,
2013-10-10 21:30:00,80.3,75.4,29.96,ENE,63,2.0,5.0,85,0.00,,FEW,0.08,0.00,VWS V14.01,2013-10-11 01:30:00,
2013-10-10 21:31:00,80.3,75.4,29.96,ESE,105,2.0,5.0,85,0.00,,FEW,0.08,0.00,VWS V14.01,2013-10-11 01:31:00,
2013-10-10 21:33:00,80.3,75.4,29.96,ENE,61,1.0,7.0,85,0.00,,FEW,0.08,0.00,VWS V14.01,2013-10-11 01:33:00,
2013-10-10 21:34:00,80.4,75.5,29.96,NE,56,1.0,3.0,85,0.00,,FEW,0.08,0.00,VWS V14.01,2013-10-11 01:34:00,
2013-10-10 21:35:00,80.4,75.5,29.96,East,84,0.0,3.0,85,0.00,,FEW,0.08,0.00,VWS V14.01,2013-10-11 01:35:00,
2013-10-10 21:36:00,80.5,75.6,29.96,East,88,3.0,3.0,85,0.00,,FEW,0.08,0.00,VWS V14.01,2013-10-11 01:36:00,
2013-10-10 21:38:00,80.5,75.6,29.96,ENE,71,4.0,5.0,85,0.00,,FEW,0.08,0.00,VWS V14.01,2013-10-11 01:38:00,
2013-10-10 21:39:00,80.6,75.7,29.96,ENE,62,3.0,5.0,85,0.00,,FEW,0.08,0.00,VWS V14.01,2013-10-11 01:39:00,
2013-10-10 21:40:00,80.6,75.7,29.96,East,81,0.0,5.0,85,0.00,,FEW,0.08,0.00,VWS V14.01,2013-10-11 01:40:00,
2013-10-10 21:41:00,80.6,75.7,29.96,SE,130,1.0,5.0,85,0.00,,FEW,0.08,0.00,VWS V14.01,2013-10-11 01:41:00,
2013-10-10 21:43:00,80.7,75.8,29.96,ENE,72,3.0,7.0,85,0.00,,FEW,0.08,0.00,VWS V14.01,2013-10-11 01:43:00,
2013-10-10 21:45:00,80.7,75.8,29.96,NE,53,1.0,2.0,85,0.00,,FEW,0.08,0.00,VWS V14.01,2013-10-11 01:45:00,
2013-10-10 21:46:00,80.7,75.8,29.96,NE,34,1.0,4.0,85,0.00,,FEW,0.08,0.00,VWS V14.01,2013-10-11 01:46:00,
2013-10-10 21:48:00,80.8,75.9,29.96,NE,44,1.0,5.0,85,0.00,,FEW,0.08,0.00,VWS V14.01,2013-10-11 01:48:00,
2013-10-10 21:50:00,80.8,75.9,29.96,ENE,62,1.0,5.0,85,0.00,,FEW,0.08,0.00,VWS V14.01,2013-10-11 01:50:00,
2013-10-10 21:51:00,80.8,75.9,29.96,East,98,2.0,5.0,85,0.00,,FEW,0.08,0.00,VWS V14.01,2013-10-11 01:51:00,
2013-10-10 21:53:00,80.8,75.9,29.96,ENE,76,1.0,5.0,85,0.00,,FEW,0.08,0.00,VWS V14.01,2013-10-11 01:53:00,
2013-10-10 21:55:00,80.8,75.9,29.96,ENE,67,5.0,8.0,85,0.00,,FEW,0.08,0.00,VWS V14.01,2013-10-11 01:55:00,
2013-10-10 21:56:00,80.9,76.0,29.96,ENE,75,3.0,8.0,85,0.00,,FEW,0.08,0.00,VWS V14.01,2013-10-11 01:56:00,
2013-10-10 21:57:00,80.8,75.5,29.96,NE,45,2.0,8.0,84,0.00,,FEW,0.08,0.00,VWS V14.01,2013-10-11 01:57:00,
2013-10-10 21:58:00,80.8,75.5,29.96,NE,49,0.0,8.0,84,0.00,,FEW,0.08,0.00,VWS V14.01,2013-10-11 01:58:00,
2013-10-10 22:00:00,80.8,75.5,29.96,NE,49,1.0,8.0,84,0.00,,FEW,0.08,0.00,VWS V14.01,2013-10-11 02:00:00,
2013-10-10 22:01:00,80.8,75.5,29.96,ENE,59,3.0,8.0,84,0.00,,FEW,0.08,0.00,VWS V14.01,2013-10-11 02:01:00,
2013-10-10 22:02:00,80.8,75.5,29.96,ENE,60,1.0,8.0,84,0.00,,FEW,0.08,0.00,VWS V14.01,2013-10-11 02:02:00,
2013-10-10 22:03:00,80.8,75.5,29.97,ENE,72,1.0,8.0,84,0.00,,FEW,0.08,0.00,VWS V14.01,2013-10-11 02:03:00,
2013-10-10 22:05:00,80.7,75.1,29.97,NE,53,2.0,5.0,83,0.00,,FEW,0.08,0.00,VWS V14.01,2013-10-11 02:05:00,
2013-10-10 22:06:00,80.7,75.1,29.97,ENE,75,1.0,5.0,83,0.00,,FEW,0.08,0.00,VWS V14.01,2013-10-11 02:06:00,
2013-10-10 22:07:00,80.8,75.2,29.97,East,80,1.0,5.0,83,0.00,,FEW,0.08,0.00,VWS V14.01,2013-10-11 02:07:00,
2013-10-10 22:08:00,80.8,75.2,29.97,NE,55,1.0,5.0,83,0.00,,FEW,0.08,0.00,VWS V14.01,2013-10-11 02:08:00,
2013-10-10 22:10:00,80.8,75.2,29.97,NE,48,1.0,7.0,83,0.00,,FEW,0.08,0.00,VWS V14.01,2013-10-11 02:10:00,
2013-10-10 22:11:00,80.8,75.2,29.97,NE,48,1.0,7.0,83,0.00,,FEW,0.08,0.00,VWS V14.01,2013-10-11 02:11:00,
2013-10-10 22:12:00,80.8,75.2,29.97,ENE,61,0.0,7.0,83,0.00,,FEW,0.08,0.00,VWS V14.01,2013-10-11 02:12:00,
2013-10-10 22:13:00,80.8,75.2,29.97,East,98,1.0,7.0,83,0.00,,FEW,0.08,0.00,VWS V14.01,2013-10-11 02:13:00,
2013-10-10 22:15:00,80.8,75.2,29.97,NE,43,1.0,3.0,83,0.00,,FEW,0.08,0.00,VWS V14.01,2013-10-11 02:15:00,
2013-10-10 22:16:00,80.8,75.2,29.97,ENE,76,2.0,5.0,83,0.00,,FEW,0.08,0.00,VWS V14.01,2013-10-11 02:16:00,
2013-10-10 22:17:00,80.8,75.2,29.97,NE,44,1.0,5.0,83,0.00,,FEW,0.08,0.00,VWS V14.01,2013-10-11 02:17:00,
2013-10-10 22:19:00,80.9,75.3,29.97,East,93,2.0,7.0,83,0.00,,FEW,0.08,0.00,VWS V14.01,2013-10-11 02:19:00,
2013-10-10 22:20:00,80.9,75.3,29.97,ESE,115,1.0,7.0,83,0.00,,FEW,0.08,0.00,VWS V14.01,2013-10-11 02:20:00,
2013-10-10 22:21:00,80.9,75.3,29.97,ENE,61,3.0,7.0,83,0.00,,FEW,0.08,0.00,VWS V14.01,2013-10-11 02:21:00,
2013-10-10 22:22:00,80.9,75.3,29.97,ENE,59,2.0,7.0,83,0.00,,FEW,0.08,0.00,VWS V14.01,2013-10-11 02:22:00,
2013-10-10 22:25:00,81.0,75.3,29.97,ESE,114,5.0,5.0,83,0.00,,FEW,0.08,0.00,VWS V14.01,2013-10-11 02:25:00,
2013-10-10 22:26:00,81.0,75.3,29.97,East,97,8.0,8.0,83,0.00,,FEW,0.08,0.00,VWS V14.01,2013-10-11 02:26:00,
2013-10-10 22:27:00,81.0,75.3,29.97,East,101,2.0,8.0,83,0.00,,FEW,0.08,0.00,VWS V14.01,2013-10-11 02:27:00,
2013-10-10 22:28:00,81.0,75.3,29.97,East,80,2.0,8.0,83,0.00,,FEW,0.08,0.00,VWS V14.01,2013-10-11 02:28:00,
2013-10-10 22:30:00,80.9,75.3,29.97,East,89,1.0,8.0,83,0.00,,FEW,0.08,0.00,VWS V14.01,2013-10-11 02:30:00,
2013-10-10 22:31:00,80.9,75.3,29.97,ENE,66,3.0,8.0,83,0.00,,FEW,0.08,0.00,VWS V14.01,2013-10-11 02:31:00,
2013-10-10 22:32:00,80.9,75.3,29.97,NE,49,2.0,8.0,83,0.00,,FEW,0.08,0.00,VWS V14.01,2013-10-11 02:32:00,
2013-10-10 22:33:00,80.9,75.3,29.97,NE,47,1.0,8.0,83,0.00,,FEW,0.08,0.00,VWS V14.01,2013-10-11 02:33:00,
2013-10-10 22:34:00,80.9,75.3,29.97,ENE,60,1.0,1.0,83,0.00,,FEW,0.08,0.00,VWS V14.01,2013-10-11 02:34:00,
2013-10-10 22:35:00,80.9,75.3,29.97,ENE,71,2.0,7.0,83,0.00,,FEW,0.08,0.00,VWS V14.01,2013-10-11 02:35:00,
2013-10-10 22:36:00,80.8,75.2,29.97,East,80,1.0,7.0,83,0.00,,FEW,0.08,0.00,VWS V14.01,2013-10-11 02:36:00,
2013-10-10 22:38:00,80.8,75.2,29.97,NE,53,6.0,7.0,83,0.00,,FEW,0.08,0.00,VWS V14.01,2013-10-11 02:38:00,
2013-10-10 22:39:00,80.8,75.2,29.97,NE,43,1.0,7.0,83,0.00,,FEW,0.08,0.00,VWS V14.01,2013-10-11 02:39:00,
2013-10-10 22:41:00,80.8,74.8,29.97,NNE,21,7.0,7.0,82,0.00,,FEW,0.08,0.00,VWS V14.01,2013-10-11 02:41:00,
2013-10-10 22:43:00,80.8,74.8,29.97,NE,44,2.0,7.0,82,0.00,,FEW,0.08,0.00,VWS V14.01,2013-10-11 02:43:00,
2013-10-10 22:44:00,80.8,74.8,29.97,NNE,20,3.0,4.0,82,0.00,,FEW,0.08,0.00,VWS V14.01,2013-10-11 02:44:00,
2013-10-10 22:45:00,80.8,74.8,29.97,NE,55,2.0,4.0,82,0.00,,FEW,0.08,0.00,VWS V14.01,2013-10-11 02:45:00,
2013-10-10 22:46:00,80.8,74.8,29.97,East,89,2.0,4.0,82,0.00,,FEW,0.08,0.00,VWS V14.01,2013-10-11 02:46:00,
2013-10-10 22:48:00,80.8,74.8,29.97,NE,35,1.0,4.0,82,0.00,,FEW,0.08,0.00,VWS V14.01,2013-10-11 02:48:00,
2013-10-10 22:49:00,80.8,74.8,29.97,NE,53,2.0,4.0,82,0.00,,FEW,0.08,0.00,VWS V14.01,2013-10-11 02:49:00,
2013-10-10 22:50:00,80.8,74.8,29.97,ENE,65,8.0,8.0,82,0.00,,FEW,0.08,0.00,VWS V14.01,2013-10-11 02:50:00,
2013-10-10 22:51:00,80.9,74.9,29.97,NE,35,0.0,8.0,82,0.00,,FEW,0.08,0.00,VWS V14.01,2013-10-11 02:51:00,
2013-10-10 22:52:00,80.9,74.9,29.97,NNE,17,1.0,8.0,82,0.00,,FEW,0.08,0.00,VWS V14.01,2013-10-11 02:52:00,
2013-10-10 22:54:00,80.9,75.3,29.97,ENE,76,4.0,8.0,83,0.00,,FEW,0.08,0.00,VWS V14.01,2013-10-11 02:54:00,
2013-10-10 22:55:00,80.9,75.3,29.97,NE,49,0.0,7.0,83,0.00,,FEW,0.08,0.00,VWS V14.01,2013-10-11 02:55:00,
2013-10-10 22:56:00,81.0,75.3,29.97,NNE,20,1.0,7.0,83,0.00,,FEW,0.08,0.00,VWS V14.01,2013-10-11 02:56:00,
2013-10-10 22:57:00,80.9,75.3,29.97,ENE,75,3.0,7.0,83,0.00,,FEW,0.08,0.00,VWS V14.01,2013-10-11 02:57:00,
2013-10-10 22:59:00,81.0,75.3,29.97,ENE,59,2.0,7.0,83,0.00,,FEW,0.08,0.00,VWS V14.01,2013-10-11 02:59:00,
2013-10-10 23:00:00,81.0,75.3,29.97,ENE,76,1.0,7.0,83,0.00,,FEW,0.08,0.00,VWS V14.01,2013-10-11 03:00:00,
2013-10-10 23:02:00,81.0,75.3,29.97,ENE,60,2.0,7.0,83,0.00,,FEW,0.08,0.00,VWS V14.01,2013-10-11 03:02:00,
2013-10-10 23:04:00,80.9,75.3,29.96,ENE,66,4.0,7.0,83,0.00,,FEW,0.08,0.00,VWS V14.01,2013-10-11 03:04:00,
2013-10-10 23:06:00,80.9,74.9,29.96,SE,138,4.0,8.0,82,0.00,,FEW,0.08,0.00,VWS V14.01,2013-10-11 03:06:00,
2013-10-10 23:07:00,80.8,74.8,29.96,East,92,3.0,8.0,82,0.00,,FEW,0.08,0.00,VWS V14.01,2013-10-11 03:07:00,
2013-10-10 23:09:00,80.8,74.8,29.96,ENE,63,7.0,8.0,82,0.00,,FEW,0.08,0.00,VWS V14.01,2013-10-11 03:09:00,
2013-10-10 23:12:00,80.7,74.3,29.96,NE,55,1.0,8.0,81,0.00,,FEW,0.08,0.00,VWS V14.01,2013-10-11 03:12:00,
2013-10-10 23:13:00,80.6,74.2,29.96,East,81,6.0,8.0,81,0.00,,FEW,0.08,0.00,VWS V14.01,2013-10-11 03:13:00,
2013-10-10 23:14:00,80.6,74.2,29.96,ENE,68,2.0,8.0,81,0.00,,FEW,0.08,0.00,VWS V14.01,2013-10-11 03:14:00,
2013-10-10 23:15:00,80.7,74.7,29.96,East,83,2.0,5.0,82,0.00,,FEW,0.08,0.00,VWS V14.01,2013-10-11 03:15:00,
2013-10-10 23:17:00,80.7,74.7,29.96,ENE,63,2.0,5.0,82,0.00,,FEW,0.08,0.00,VWS V14.01,2013-10-11 03:17:00,
2013-10-10 23:18:00,80.7,75.1,29.96,ENE,65,3.0,5.0,83,0.00,,FEW,0.08,0.00,VWS V14.01,2013-10-11 03:18:00,
2013-10-10 23:19:00,80.8,75.2,29.96,NE,56,2.0,5.0,83,0.00,,FEW,0.08,0.00,VWS V14.01,2013-10-11 03:19:00,
2013-10-10 23:20:00,80.8,75.2,29.96,ESE,120,3.0,5.0,83,0.00,,FEW,0.08,0.00,VWS V14.01,2013-10-11 03:20:00,
2013-10-10 23:22:00,80.8,75.5,29.96,ENE,74,7.0,7.0,84,0.00,,FEW,0.08,0.00,VWS V14.01,2013-10-11 03:22:00,
2013-10-10 23:23:00,80.8,75.5,29.96,East,88,2.0,7.0,84,0.00,,FEW,0.08,0.00,VWS V14.01,2013-10-11 03:23:00,
2013-10-10 23:24:00,80.8,75.5,29.96,NE,51,1.0,3.0,84,0.00,,FEW,0.08,0.00,VWS V14.01,2013-10-11 03:24:00,
2013-10-10 23:25:00,80.7,75.4,29.96,NE,54,3.0,4.0,84,0.00,,FEW,0.08,0.00,VWS V14.01,2013-10-11 03:25:00,
2013-10-10 23:27:00,80.7,75.4,29.96,East,95,6.0,6.0,84,0.00,,FEW,0.08,0.00,VWS V14.01,2013-10-11 03:27:00,
2013-10-10 23:28:00,80.6,75.3,29.96,ENE,58,2.0,6.0,84,0.00,,FEW,0.08,0.00,VWS V14.01,2013-10-11 03:28:00,
2013-10-10 23:29:00,80.6,75.3,29.96,ESE,118,3.0,7.0,84,0.00,,FEW,0.08,0.00,VWS V14.01,2013-10-11 03:29:00,
2013-10-10 23:30:00,80.6,75.3,29.96,NE,37,6.0,7.0,84,0.00,,FEW,0.08,0.00,VWS V14.01,2013-10-11 03:30:00,
2013-10-10 23:32:00,80.5,75.2,29.96,ENE,71,1.0,7.0,84,0.00,,FEW,0.08,0.00,VWS V14.01,2013-10-11 03:32:00,
2013-10-10 23:33:00,80.5,75.2,29.96,ENE,75,1.0,7.0,84,0.00,,FEW,0.08,0.00,VWS V14.01,2013-10-11 03:33:00,
2013-10-10 23:34:00,80.5,75.2,29.96,ESE,115,4.0,4.0,84,0.00,,FEW,0.08,0.00,VWS V14.01,2013-10-11 03:34:00,
2013-10-10 23:35:00,80.5,75.2,29.96,East,81,1.0,4.0,84,0.00,,FEW,0.08,0.00,VWS V14.01,2013-10-11 03:35:00,
2013-10-10 23:37:00,80.5,75.2,29.96,East,80,0.0,5.0,84,0.00,,FEW,0.08,0.00,VWS V14.01,2013-10-11 03:37:00,
2013-10-10 23:38:00,80.5,75.2,29.96,East,84,2.0,5.0,84,0.00,,FEW,0.08,0.00,VWS V14.01,2013-10-11 03:38:00,
2013-10-10 23:39:00,80.5,75.2,29.96,ESE,113,2.0,5.0,84,0.00,,FEW,0.08,0.00,VWS V14.01,2013-10-11 03:39:00,
2013-10-10 23:40:00,80.5,75.2,29.96,ENE,66,3.0,5.0,84,0.00,,FEW,0.08,0.00,VWS V14.01,2013-10-11 03:40:00,
2013-10-10 23:42:00,80.5,75.6,29.96,ENE,63,3.0,7.0,85,0.00,,FEW,0.08,0.00,VWS V14.01,2013-10-11 03:42:00,
2013-10-10 23:43:00,80.5,75.6,29.96,ENE,65,2.0,7.0,85,0.00,,FEW,0.08,0.00,VWS V14.01,2013-10-11 03:43:00,
2013-10-10 23:44:00,80.5,75.6,29.96,East,95,8.0,8.0,85,0.00,,FEW,0.08,0.00,VWS V14.01,2013-10-11 03:44:00,
2013-10-10 23:46:00,80.5,75.2,29.96,East,84,3.0,8.0,84,0.00,,FEW,0.08,0.00,VWS V14.01,2013-10-11 03:46:00,
2013-10-10 23:48:00,80.5,75.2,29.96,SE,135,4.0,8.0,84,0.00,,FEW,0.08,0.00,VWS V14.01,2013-10-11 03:48:00,
2013-10-10 23:49:00,80.5,75.2,29.96,ENE,66,2.0,8.0,84,0.00,,FEW,0.08,0.00,VWS V14.01,2013-10-11 03:49:00,
2013-10-10 23:51:00,80.5,75.2,29.96,NE,39,2.0,8.0,84,0.00,,FEW,0.08,0.00,VWS V14.01,2013-10-11 03:51:00,
2013-10-10 23:53:00,80.5,75.2,29.96,NE,46,1.0,8.0,84,0.00,,FEW,0.08,0.00,VWS V14.01,2013-10-11 03:53:00,
2013-10-10 23:54:00,80.5,75.2,29.96,NE,46,0.0,8.0,84,0.00,,FEW,0.08,0.00,VWS V14.01,2013-10-11 03:54:00,
2013-10-10 23:56:00,80.5,75.2,29.96,ENE,65,1.0,4.0,84,0.00,,FEW,0.08,0.00,VWS V14.01,2013-10-11 03:56:00,
2013-10-10 23:58:00,80.6,75.3,29.96,NE,56,1.0,4.0,84,0.00,,FEW,0.08,0.00,VWS V14.01,2013-10-11 03:58:00,
2013-10-10 23:59:00,80.5,75.2,29.96,ENE,57,3.0,4.0,84,0.00,,FEW,0.08,0.00,VWS V14.01,2013-10-11 03:59:00,